events-overview

 

Vulcan Run 2015 - Overall Combined Results

** Results are for the private use of participants and are the Intellectual Property of Set Up Events. Unauthorized use of these results is prohibited.

Place Bib NAME Age Sex CITY/STATE TeamName GunTime GunPace TagTime TagPace
113KANE GRIMSTER23MAUBURN AL 00:29:4100:04:4800:29:4100:04:48
21156JULIUS KOSKEI33MHEBRON KY 00:30:0100:04:5100:30:0100:04:51
31150PATRICK CHEPTOEK29MMURFREESBORO TN 00:30:3800:04:5700:30:3800:04:57
414CORY LESLIE26MGREENVILLE SC 00:30:4400:04:5800:30:4400:04:58
51044KENNEDY KEMEI37MHEBRON KY 00:31:2700:05:0500:31:2700:05:05
618WILKERSON GIVEN24MGREENVILLE SC 00:31:3500:05:0600:31:3500:05:06
711SEAN BROWN27MHOOVER AL 00:32:3300:05:1500:32:3300:05:15
812AUSTIN DUCKWORTH26MAUSTIN TXCAHABA DISTANCE PROJECT00:32:4200:05:1700:32:4200:05:17
916SAMUEL MUELLER23MBIRMINGHAM AL 00:32:5600:05:1900:32:5600:05:19
1017JAY STEPHENSON34MROME GA 00:33:0600:05:2100:33:0600:05:21
11901GALINA IVANOVA39FHEBRON KY 00:33:4500:05:2700:33:4500:05:27
121149DAVID MOKONE24MBOWLING GREEN KY 00:34:1400:05:3200:34:1400:05:32
1319SCOTT FUQUA32MIRONDALE ALCAHABA DISTANCE PROJECT00:34:1400:05:3200:34:1400:05:32
143GISELA OLALDE GRANADOS31FHERMITAGE TN 00:35:0800:05:4000:35:0800:05:40
151CARMEN HUSSAR38FBIRMINGHAM AL 00:35:1600:05:4200:35:1600:05:42
1633MARK PEPIN27MHOMEWOOD AL 00:36:0500:05:5000:36:0500:05:50
1732MICHAEL BROWN31MBIRMINGHAM ALRUNNINGLANE00:36:1600:05:5100:36:1600:05:51
1834MICHAEL NIEZGODA26MBIRMINGHAM ALCAHABA DISTANCE PROJECT00:36:2000:05:5200:36:2000:05:52
19197GOLDEN COACHMAN31MBIRMINGHAM AL 00:36:2100:05:5200:36:2100:05:52
2020MATTHEW HAMMERSMITH28MGREENVILLE SC 00:36:2100:05:5200:36:2100:05:52
214VICTORIA VORONKO24FGREENVILLE SC 00:36:2200:05:5200:36:2200:05:52
2210ELENA KIDD29FHOMEWOOD ALTHE TRAK SHAK 100:36:3700:05:5500:36:3700:05:55
23898GATLIN HOLLAND20MGARDENDALE ALCADENCE RUN COACHING BLUE00:36:3900:05:5500:36:3900:05:55
24325JOHN MARK GOODMAN35MBIRMINGHAM ALCAHABA DISTANCE PROJECT00:36:4000:05:5500:36:4000:05:55
25434CORY JONES24MBIRMINGHAM AL 00:36:4300:05:5600:36:4300:05:56
262JUSTYNA MUDY-MADER31FHUNTSVILLE ALRUNNINGLANE00:36:5800:05:5800:36:5800:05:58
271148CHRIS MAHAFFEY33MODENVILLE AL 00:37:0000:05:5800:37:0000:05:58
2831WILL RODGERS27MPELHAM ALRUNNINGLANE00:37:0200:05:5900:37:0200:05:59
29511BRANDON MADER31MHUNTSVILLE ALRUNNINGLANE00:37:0700:06:0000:37:0700:06:00
30514MICHAEL MARQUARDT35MCALERA ALTHE TRAK SHAK 100:37:1700:06:0100:37:1700:06:01
PlaceBibNAMEAgeSexCITY/STATETeamNameGunTimeGunPaceTagTimeTagPace
31744KEN STOLTZFUS43MHOOVER AL 00:37:3000:06:0300:37:3000:06:03
3286BEAU BEARD31MBIRMINGHAM AL 00:37:3700:06:0400:37:3000:06:03
33746SCOTT STRAND47MBIRMINGHAM ALTHE TRAK SHAK 100:37:4200:06:0500:37:4200:06:05
34600BRAD OLZINSKI28MPELHAM AL 00:38:0900:06:1000:38:0900:06:10
3529JEFF MARTINEZ41MVESTAVIA HILLS ALTHE TRAK SHAK 100:38:2300:06:1200:38:2300:06:12
3627JEFF CLARK50MMCCALLA AL 00:38:3300:06:1400:38:3300:06:14
371033JOSH DONALDSON25MBIRMINGHAM AL 00:38:3800:06:1400:38:3200:06:13
38625BARRY PHILLIPS20MNASHVILLE TN 00:38:3900:06:1500:38:3900:06:15
39849TIMOTHY WILLIAMS38MBIRMINGHAM AL 00:39:0600:06:1900:39:0000:06:18
40559NATHAN MIYASAKI33MBIRMINGHAM AL 00:39:1400:06:2000:39:0800:06:19
41221DAMON COX37MHOMEWOOD AL 00:39:1600:06:2000:38:3700:06:14
421157FLORENCE MOSE23FBIRMINGHAM AL 00:39:1900:06:2100:39:1900:06:21
43151BRANDON BYRD29MBIRMINGHAM AL 00:39:2300:06:2200:39:1700:06:21
44690LAUREN SCOTT24FBIRMINGHAM AL 00:39:2700:06:2200:39:2700:06:22
45567CARY MORGAN43MBIRMINGHAM ALCADENCE RUN COACHING BLUE00:39:2700:06:2200:39:2100:06:21
46827ADAM WENDE37MVESTAVIA HILLS AL 00:39:2800:06:2200:39:2800:06:22
477ELIZABETH LASETER27FNEW YORK NY 00:39:3000:06:2300:39:3000:06:23
48639LARS PORTER34MBIRMINGHAM ALTHE TRAK SHAK 200:39:3700:06:2400:39:3700:06:24
49456SARAH KLUTH32FBIRMINGHAM ALCADENCE RUN COACHING WHIT00:39:3800:06:2400:39:3800:06:24
501170ZACHARY ONDARA24MBIRMINGHAM AL 00:39:4100:06:2400:39:4100:06:24
51565PHILLIP MOORE30MBIRMINGHAM ALTHE TRAK SHAK 200:39:4300:06:2500:39:4300:06:25
52606CHARLIE PARKS35MBIRMINGHAM AL 00:40:0500:06:2800:39:5900:06:27
53695DANNY SHAFFIELD42MVESTAVIA HILLS AL 00:40:0800:06:2900:40:0100:06:28
54614DAVID PEACOCK46MBIRMINGHAM ALTHE TRAK SHAK 200:40:2000:06:3100:40:1400:06:30
55936ROBERT THOMPSON37MBIRMINGHAM AL 00:40:2700:06:3200:40:2000:06:31
56934TAYLOR STINSON24MBIRMINGHAM AL 00:40:3600:06:3300:40:3600:06:33
57687MIKE SCHOR52MBIRMINGHAMA AL 00:40:5300:06:3600:40:4600:06:35
58590THE MIGHTY NERDNOF30MBIRMINGHAM AL 00:41:0100:06:3700:40:5400:06:36
591038JON GRAHAM39MBIRMINGHAM AL 00:41:0200:06:3700:40:5400:06:36
601166STEVE HICKS45MVESTAVIA HILLS AL 00:41:0600:06:3800:41:0600:06:38
61654JAMES REDIKER33MBIRMINGHAM AL 00:41:2500:06:4100:41:1800:06:40
PlaceBibNAMEAgeSexCITY/STATETeamNameGunTimeGunPaceTagTimeTagPace
62421TRAVIS JOHNSON40MBIRMINGHAM AL 00:41:3200:06:4200:41:3200:06:42
63688MICHAEL SCHOR21MBIRMINGHAM AL 00:41:4200:06:4400:41:3500:06:43
64534JUSTIN MCDONALD47MBIRMINGHAM AL 00:41:4600:06:4500:41:3900:06:43
658JENNIFER DUNN25FBIRMINGHAM AL 00:41:5400:06:4600:41:5400:06:46
66388ZACHARY HOLCOMB21MBIRMINGHAM AL 00:41:5700:06:4600:41:5100:06:45
67362CHAD HATHORNE47MHOMEWOOD AL 00:41:5800:06:4600:41:5100:06:45
68381QUINN HILL38MLEEDS AL 00:42:0000:06:4700:41:5300:06:46
69243PATRICK DAVIS22MBIRMINGHAM AL 00:42:0400:06:4800:42:0400:06:48
70847RUSSELL WILLIAMS46MBIRMINGHAM AL 00:42:0900:06:4800:42:0300:06:47
71340CARY GUFFEY43MBIRMINGHAM AL 00:42:1300:06:4900:42:0600:06:48
7280ROBERT BARBER40MHOOVER AL 00:42:1600:06:4900:42:1000:06:48
73346DAVE HALPERIN47MBIRMINGHAM AL 00:42:1800:06:5000:42:1100:06:49
74344RACHEL HAGUES32FBIRMINGHAM ALCADENCE RUN COACHING WHIT00:42:2200:06:5000:42:2200:06:50
75685SCOTT SANDLIN36MHUNTSVILLE AL 00:42:2900:06:5200:42:2100:06:50
76771SHAUN TILLERY35MLEEDS AL 00:42:3500:06:5200:42:2800:06:51
771137BRITTNEY HARRISON25FBIRMINGHAM AL 00:42:3600:06:5300:42:3600:06:53
78206NATHAN COLLINS39MBIRMINGHAM AL 00:42:4100:06:5400:42:2800:06:51
79638SARAH PORTELLA31FHOOVER ALTHE TRAK SHAK 100:42:4600:06:5400:42:4600:06:54
80757ERIC THOMAS38MADAMSVILLE AL 00:42:4700:06:5400:42:3200:06:52
811020EVAN BAGGETT35MBIRMINGHAM AL 00:42:4900:06:5500:42:3800:06:53
82249DAVID DENARD47MTRUSSVILLE AL 00:42:5000:06:5500:42:4100:06:54
83415ALEXANDER JAFFERY20MTUSCALOOSA AL 00:42:5400:06:5600:42:5400:06:56
84700PETER SHEAROUSE28MBIRMINGHAM AL 00:42:5500:06:5600:42:4900:06:55
85245RON DEAN46MBIRMINGHAM AL 00:42:5600:06:5600:42:4900:06:55
86135CAMERON BROWN26MBIRMINGHAM AL 00:42:5800:06:5600:42:5200:06:55
871146KEVIN STOLTZ28MBIRMINGHAM AL 00:43:0100:06:5700:42:4700:06:54
88481TIM LEE53MCULLMAN AL 00:43:0100:06:5700:42:5500:06:56
89991TIM PEMBERTON38MODENVILLE AL 00:43:1300:06:5900:43:0600:06:58
90519ADAM MARTZ32MGARDENDALE AL 00:43:1300:06:5900:43:0100:06:57
91412JOSEPH JACKSON25MVESTAVIA ALMUGGLE HUSTLE00:43:1800:06:5900:43:0100:06:57
92811JOSHUA WASHINGTON20MMERIDIANVILLE AL 00:43:1900:07:0000:43:0300:06:57
PlaceBibNAMEAgeSexCITY/STATETeamNameGunTimeGunPaceTagTimeTagPace
93376MELANIE HILDEBRANDT27FBIRMINGHAM AL 00:43:2200:07:0000:43:1600:06:59
94165CRAIG CECIL65MBIRMINGHAM AL 00:43:2300:07:0000:43:1500:06:59
95324JOY GONZALEZ33FBIRMINGHAM AL 00:43:2400:07:0000:43:2400:07:00
961014THOMAS WOLFE15MBIRMINGHAM AL 00:43:2500:07:0100:43:2500:07:01
97129HANK BROWN62MVESTAVIA HILLS AL 00:43:3000:07:0100:43:2200:07:00
98201JOSH COFIELD16MALABASTER AL 00:43:3100:07:0100:43:3100:07:01
991095WALTER MCCORD24MBIRMINGHAM AL 00:43:3200:07:0200:43:1200:06:58
1001167TRISTAN TILLETTE40MBIRMINGHAM AL 00:43:4200:07:0300:43:1100:06:58
101662KEVIN ROBERSON54MMOUNT OLIVE AL 00:43:4400:07:0400:43:3700:07:03
1021107KEVIN BOKUS41MBIRMINGHAM AL 00:43:4600:07:0400:43:3700:07:03
103119JOSH BOYD15MASHVILLE AL 00:43:4600:07:0400:43:3900:07:03
1041117RETIRED HOOVER50MBIRMINGHAM AL 00:43:4900:07:0400:43:4000:07:03
105196ADDISON CLOWERS27MBIRMINGHAM AL 00:43:5200:07:0500:43:4300:07:03
106337MISTY GRIFFIN41FMOODY AL 00:43:5300:07:0500:43:4600:07:04
107267DANIEL DYE38MBIRMINGHAM AL 00:43:5800:07:0600:43:3100:07:02
1081145ALLISON PHEARS38FATLANTA GA 00:43:5900:07:0600:43:5900:07:06
109265STEVEN DUKE43MHOMEWOOD AL 00:44:0400:07:0700:43:5600:07:06
110945MURPHY WRIGHT15MHOMEWOOD AL 00:44:0700:07:0700:43:3600:07:02
1111122JAY MCDIARMID48MHOOVER AL 00:44:1100:07:0800:43:5900:07:06
112972SANFORD HOOPER41MBIRMINGHAM AL 00:44:1300:07:0800:43:3700:07:02
1131017TOMMY YARBROUGH23MBIRMINGHAM AL 00:44:1500:07:0900:44:0800:07:08
114264KRISTI DUDLEY40FBIRMINGHAM AL 00:44:1700:07:0900:44:1700:07:09
1151030RENATO CORBETTA46MBIRMINGHAM AL 00:44:1800:07:0900:43:5100:07:05
1161052CURT MARTIN34MBIRMINGHAM AL 00:44:2500:07:1000:43:5600:07:06
117455DANNER KLINE37MBIRMINGHAM AL 00:44:2900:07:1100:44:2200:07:10
1181072NATE WILLIAMS28MBIRMINGHAM AL 00:44:2900:07:1100:44:1000:07:08
119525SIDNEY MAYS54MVESTAVIA AL 00:44:3200:07:1100:44:2500:07:10
120884JOSEPH DEASE39MVESTAVIA HILLS AL 00:44:3500:07:1200:44:3500:07:12
121104BRANDON BLACK36MBIRMINGHAM AL 00:44:4100:07:1300:44:3500:07:12
122669BILLY ROSE34MHOOVER ALCADENCE RUN COACHING BLUE00:44:5000:07:1400:44:4300:07:13
1231134MARY JO SCHMALZ49FBIRMINGHAM ALTHE TRAK SHAK 200:44:5600:07:1500:44:3800:07:12
PlaceBibNAMEAgeSexCITY/STATETeamNameGunTimeGunPaceTagTimeTagPace
1241162ROGER WOOD40MBIRMINGHAM AL 00:45:0100:07:1600:44:4600:07:14
125633DAVID PLANTE53MBIRMINGHAM AL 00:45:0600:07:1700:45:0600:07:17
126835HAL WHITSITT32MVESTAVIA HILLS AL 00:45:0800:07:1700:45:0000:07:16
1271007BART SWECKER34MBIRMINGHAM AL 00:45:1000:07:1800:45:0300:07:16
128689WILL SCOGIN24MBIRMINGHAM ALMUGGLE HUSTLE00:45:1100:07:1800:44:5400:07:15
129220JAMES COUNSELL53MPRATTVILLE AL 00:45:1300:07:1800:45:0500:07:17
1301023STAN BLANTON57MBIRMINGHAM AL 00:45:1600:07:1800:44:5100:07:14
131112JULIE CROUSHORN43FHOOVER AL 00:45:1700:07:1900:45:0700:07:17
132929NATHAN SATURDAY37MBIRMINGHAM AL 00:45:1800:07:1900:45:1800:07:19
133865GARY YORK56MHOOVER AL 00:45:1900:07:1900:45:1900:07:19
134651MEGHAN RALPH27FBIRMINGHAM AL 00:45:3000:07:2100:45:3000:07:21
135159CHRISTOPHER CAREY45MBIRMINGHAM AL 00:45:3100:07:2100:45:2100:07:19
136495LEIGH ELLEN LOGAN24FBIRMINGHAM ALMUGGLE HUSTLE00:45:3300:07:2100:45:1600:07:18
137487DON LEOPARD50MSPRINGVILLE AL 00:45:3300:07:2100:45:1700:07:19
1381001ROBERT SCHWYN49MOXFORD AL 00:45:3500:07:2200:45:3500:07:22
139931MATT SEARSON34MBIRMINGHAM AL 00:45:3700:07:2200:45:1700:07:19
140115RYAN BOWERS29MHUNTSVILLE AL 00:45:4000:07:2200:45:4000:07:22
141345PHILIP HAKE34MHOMEWOOD AL 00:45:4300:07:2300:45:3400:07:21
1421088WILLIAM ELLIS35MMOUNTAIN BROOK AL 00:45:4800:07:2400:45:3700:07:22
143327IZZY GOULD41MVESTAVIA HILLS AL 00:45:5300:07:2400:45:1600:07:18
144722CHRISTIAN SMITH24FBIRMINGHAMIRMI AL 00:45:5300:07:2400:45:3700:07:22
1451093JOHN ANDRESS12MBIRMINGHAM AL 00:45:5300:07:2400:45:4000:07:22
1461098NELLE DOUGLAS27FHARRISONBURG VA 00:45:5600:07:2500:45:4900:07:24
147894MATTHEW HALL36MBIRMINGHAM AL 00:45:5800:07:2500:45:4900:07:24
148829PETER WEST34MBIRMINGHAM AL 00:46:0100:07:2600:45:5200:07:24
149992REBECCA PHILLIPS32FBIRMINGHAM AL 00:46:0400:07:2600:45:5300:07:24
150467TYLER LAHTI25MBIRMINGHAM AL 00:46:1100:07:2700:45:3400:07:21
15167NICK AYERS14MBIRMINGHAM AL 00:46:1600:07:2800:46:0200:07:26
152338BRENDAN GRIFFIN26MBIRMINGHAM AL 00:46:1600:07:2800:46:0300:07:26
1531136JAKE KENNAMER27MVESTAVIA HILLS AL 00:46:2000:07:2900:46:0100:07:26
1541079DAVID GORDON39MBIRMINGHAM AL 00:46:2400:07:3000:46:1800:07:28
PlaceBibNAMEAgeSexCITY/STATETeamNameGunTimeGunPaceTagTimeTagPace
155466JOSEPH LAHR28MBIRMINGHAM AL 00:46:3000:07:3000:46:2000:07:29
156692DEBI SECOR47FJOHNSON CITY TN 00:46:3100:07:3100:46:1900:07:29
157399MIKE HOUSE42MMONTEVALLO AL 00:46:3500:07:3100:46:2500:07:30
158358JIMMY HARRISON49MBIRMINGHAM AL 00:46:3600:07:3100:46:2900:07:30
159163BARRY CASEY43MALABASTER AL 00:46:3700:07:3200:46:2600:07:30
160581JASON MURRAY34MHOOVER AL 00:46:3800:07:3200:46:2500:07:30
161256DREW DICKERSON42MNORTHPORT AL 00:46:3800:07:3200:46:2700:07:30
162961SCOTT CONAWAY53MODENVILLE AL 00:46:4400:07:3300:46:3700:07:32
1631097ROB CRABTREE52MBIRMINGHAM AL 00:46:4500:07:3300:46:3900:07:32
164647TODD PRINCE45MHOOVER AL 00:46:4800:07:3300:46:4100:07:32
165212JULES CONNELLY24FBIRMINGHAM ALTHE TRAK SHAK 200:46:5100:07:3400:46:4500:07:33
166674PAUL ROSS43MVESTAVIA AL 00:46:5400:07:3400:46:3500:07:31
16721ALISON HOOVER49FHOOVER AL 00:46:5600:07:3500:46:5600:07:35
16891JACK BELL14MBIRMINGHAM AL 00:47:0200:07:3600:47:0200:07:36
169422CORY JOHNSON37MHOMEWOOD AL 00:47:0400:07:3600:46:5800:07:35
170895JOHN HAMITER36MVESTAVIA AL 00:47:0500:07:3600:46:5500:07:34
171864SOON YOON38MHOOVER AL 00:47:0600:07:3600:46:4400:07:33
172398ARMIN HORNIKEL25MNORTHPORT ALMUGGLE HUSTLE00:47:0900:07:3700:46:5200:07:34
1731075MATTHEW WOLFE32MBIRMINGHAM AL 00:47:2000:07:3800:47:0000:07:35
174564RYAN MOORE35MBIRMINGHAM AL 00:47:2400:07:3900:47:1700:07:38
175488ADAM LINDSEY40MBIRMINGHAM AL 00:47:2600:07:3900:47:2000:07:38
176301ROBERT FUNK52MPELL CITY AL 00:47:3300:07:4100:46:5900:07:35
17787KRISTIN BEASON40FASHVILLE AL 00:47:3400:07:4100:47:2400:07:39
178887LEWIS FISCHER13MBIRMINGHAM AL 00:47:4000:07:4200:47:4000:07:42
179353KENNETH HARKLESS64MBESSEMER AL 00:47:4400:07:4200:47:3600:07:41
180964MASON CROSS56MMOUNTAIN BROOK AL 00:47:4500:07:4200:47:3800:07:41
1811067STEVEN TROTTER41MHOOVER AL 00:47:4900:07:4300:47:3300:07:41
182809TOM WARREN62MHELENA AL 00:47:5000:07:4300:47:3900:07:42
183893HIBOOMBE HAAMANKULI32MBIRMINGHAM AL 00:47:5100:07:4300:47:3100:07:40
1841057MARY SCOTT PEARSON37FHOMEWOOD AL 00:47:5100:07:4400:47:3800:07:41
18548S RHEAGAN ALEXANDER36FBIRMINGHAM AL 00:47:5300:07:4400:47:4600:07:43
PlaceBibNAMEAgeSexCITY/STATETeamNameGunTimeGunPaceTagTimeTagPace
186148THERESA BURST57FBIRMINGHAM AL 00:47:5300:07:4400:47:4300:07:42
18770CHRISTOPHER BAGGETT41MBESSEMER AL 00:47:5700:07:4400:47:4400:07:42
188975CHRISTY HUFFSTUTLER28FHELENA AL 00:47:5900:07:4500:47:4400:07:42
189860RAY WORKMAN52MBIRMINGHAM AL 00:48:0000:07:4500:47:5400:07:44
190137DAVID BRYANT50MTRUSSVILLE AL 00:48:0300:07:4500:47:5600:07:44
191423CARLA JOHNSON35FVESTAVIA AL 00:48:0500:07:4600:47:5500:07:44
192747DANNY SULLIVAN42MHELENA AL 00:48:1100:07:4700:47:3800:07:41
193217LAUREN CORNELIUS26FONEONTA AL 00:48:1400:07:4700:47:5500:07:44
194636JIM POH57MBIRMINGHAM AL 00:48:1500:07:4700:48:0800:07:46
195996TATE RECORD13MBIRMINGHAM AL 00:48:1500:07:4700:48:1500:07:47
196620CHARLIE PETERS29MBIRMINGHAM AL 00:48:1700:07:4800:47:4700:07:43
197387CHRIS HOGGLE47MCOVINGTON LA 00:48:1700:07:4800:48:1100:07:47
198435SARA JOYCE28FLEEDS AL 00:48:2100:07:4800:48:0800:07:46
199663FLETCHER ROBERTS25MBIRMINGHAM AL 00:48:2200:07:4900:48:0100:07:45
200916HALEY MONTGOMERY34FBIRMINGHAM AL 00:48:2300:07:4900:48:0800:07:46
201247ANNE DEBARDELEBEN33FMOUNTAIN BROOK AL 00:48:2800:07:4900:48:0800:07:46
202157DANA CAMPBELL35FBIRMINGHAM AL 00:48:3000:07:5000:48:1500:07:47
203982JAMYE LITTY39FBIRMINGHAM AL 00:48:3300:07:5000:48:2300:07:49
204580DERRICK MURPHY49MVESTAVIA HILLS AL 00:48:3700:07:5100:48:0500:07:46
205667MYRNA RODRIGUEZ28FBIRMINGHAM AL 00:48:4500:07:5200:48:3800:07:51
206250TAYLOR DENARD45MTRUSSVILLE AL 00:48:4700:07:5300:48:4700:07:53
207286JONATHAN FIELD28MATLANTA GA 00:48:5100:07:5300:47:5700:07:44
2081064JASON SMITH46MBIRMINGHAM AL 00:48:5500:07:5400:48:4300:07:52
2091158MATTHEW MCWILLIAMS36MHOOVER AL 00:48:5900:07:5400:48:5200:07:53
2101034PATRICK FLYNN39MBIRMINGHAM AL 00:49:0300:07:5500:48:4300:07:52
2111021FRANK BARRY52MBIRMINGHAM AL 00:49:0400:07:5500:48:4800:07:53
212152RACHEL BYRD26FBIRMINGHAM AL 00:49:0700:07:5600:49:0000:07:55
213845DAVID WILLIAMS52MPELHAM AL 00:49:0700:07:5600:49:0700:07:56
21444CARLOS AGEA28MBIRMINGHAM AL 00:49:0900:07:5600:49:0100:07:55
215548MATTHEW MICHALKE32MODENVILLE AL 00:49:1100:07:5600:48:3900:07:51
216242AMY DAVIS26FBIRMINGHAM AL 00:49:1600:07:5700:49:1000:07:56
PlaceBibNAMEAgeSexCITY/STATETeamNameGunTimeGunPaceTagTimeTagPace
21761JENNIFER ANDRESS47FBIRMINGHAM AL 00:49:2100:07:5800:49:0700:07:56
218941JIM WILDER III38MVESTAVIA HILLS AL 00:49:2200:07:5800:48:5100:07:53
219530DAVID MCCOLLUM54MHOOVER AL 00:49:2600:07:5900:49:2000:07:58
220181MELISSA CLARK37FVESTAVIA AL 00:49:2700:07:5900:49:2000:07:58
221755JAMIE THOMAS54FBIRMINGHAM AL 00:49:3000:07:5900:49:2200:07:58
222754BETHANY TERRELL36FBIRMINGHAM AL 00:49:3500:08:0000:49:2600:07:59
223572WILLIAM MORROW44MBIRMINGHAM AL 00:49:3600:08:0000:48:5700:07:54
2241018JEFF AIKEN58MALABASTER AL 00:49:4200:08:0100:49:4200:08:01
225994WADE PYRON47MBIRMINGHAM AL 00:49:5100:08:0300:49:4500:08:02
2261051ANTHONY MARINO46MBIRMINGHAM AL 00:49:5100:08:0300:49:2300:07:58
227444MICHELLE KEHRES17FHUNTSVILLE AL 00:49:5400:08:0300:49:3600:08:00
228836J. WHITSON38MBIRMINGHAM AL 00:49:5600:08:0400:48:5600:07:54
229268WILL EARNHARDT13MBIRMINGHAM AL 00:50:0000:08:0400:49:3400:08:00
2301042LAUREN HOWELL23FBIRMINGHAM AL 00:50:0800:08:0600:49:5400:08:03
231218ROGER CORRIN46MBIRMINGHAM AL 00:50:1400:08:0700:50:1400:08:07
232951NICHOLAS BRADEN32MPELHAM AL 00:50:1600:08:0700:49:4400:08:02
233900MIKE HULEN40MALABASTER AL 00:50:1900:08:0700:50:0000:08:04
2341102JULIA BACHRACH42FHOOVER AL 00:50:2200:08:0800:50:2200:08:08
235134SEAN BROWN43MIRONDALE AL 00:50:2300:08:0800:50:1700:08:07
23650BECKY ALLEN48FCUMMING GA 00:50:2900:08:0900:50:2200:08:08
237103DYLAN BLACK47MBIRMINGHAM AL 00:50:3300:08:1000:50:3300:08:10
238430JASON JONES38MHOOVER AL 00:50:3600:08:1000:50:1700:08:07
239549PAMELA MILLER40FSTERRETT AL 00:50:3700:08:1000:50:2400:08:08
240578WIL MULLINS27MGADSDEN AL 00:50:3800:08:1000:50:2600:08:09
24176MICHAEL BALLARD56MBIRMINGHAM AL 00:50:4000:08:1100:50:4000:08:11
2421049DAVID LOPER51MBIRMINGHAM AL 00:50:4400:08:1100:50:2200:08:08
243372PATRICK HICKERSON49MBIRMINGHAM AL 00:50:4500:08:1200:50:3200:08:09
244705DANIEL SILBERGER28MHOMEWOOD AL 00:50:4600:08:1200:50:3600:08:10
2451118DAVID JONES31MMT. OLIVE AL 00:50:5000:08:1200:50:3900:08:11
246617LUIS PEDROSA40MBIRMINGHAM AL 00:50:5000:08:1200:50:5000:08:12
247401PHILIP HOUSLER30MBIRMINGHAM AL 00:50:5300:08:1300:50:3700:08:10
PlaceBibNAMEAgeSexCITY/STATETeamNameGunTimeGunPaceTagTimeTagPace
248231AVERY CRUMP13MBIRMINGHAM AL 00:50:5600:08:1300:49:5100:08:03
2491040JOSH HANNUM54MBIRMINGHAM AL 00:50:5700:08:1300:50:4800:08:12
250127PATRICK BROCK48MCULLMAN AL 00:50:5900:08:1400:50:5100:08:13
251512TIM MALEC43MHELENA AL 00:51:0200:08:1400:50:5500:08:13
252640PAUL PORTWOOD47MSELMA AL 00:51:0400:08:1500:50:5000:08:12
2531112DEAN LEADER64MVESTAVIA HILLS AL 00:51:0400:08:1500:50:4400:08:11
2541012JOSH WOLFE13MBIRMINGHAM AL 00:51:0400:08:1500:50:5300:08:13
25593PAUL BENTLEY40MBIRMINGHAM AL 00:51:0700:08:1500:50:4500:08:12
256777JAMIE TRIMBLE47MVESTAVIA AL 00:51:1000:08:1600:50:3500:08:10
257164OCTAVIO CAVIEDES53MVESTAVIA HILLS AL 00:51:1300:08:1600:51:0200:08:14
258911KATIE MCELROY28FBIRMINGHAM AL 00:51:1700:08:1700:50:5900:08:14
259531MEGAN MCCORD27FBIRMINGHAM AL 00:51:1800:08:1700:50:5600:08:13
2601081CHRISTIAN PRONATH52MBIRMINGHAM AL 00:51:1800:08:1700:50:4400:08:11
261821AMY WEBER56FBIRMINGHAM AL 00:51:1900:08:1700:51:0500:08:15
26279RAMOND BANKS58MBIRMINGHAM AL 00:51:2300:08:1800:51:1000:08:16
263116BRANDON BOYD35MBIRMINGHAM AL 00:51:2500:08:1800:51:0400:08:15
264927TOVAH ROSE35FHOOVER AL 00:51:2500:08:1800:50:5100:08:12
265450BOBBY KEY32MBIRMINGHAM AL 00:51:3000:08:1900:51:0900:08:15
266114LINDA BOWEN35FBIRMINGHAM AL 00:51:3200:08:1900:51:1400:08:16
2671154DIAMOND VROCHER40MTRUSSVILLE AL 00:51:3300:08:1900:50:5500:08:13
268161CHAD CARROLL24MMOODY AL 00:51:3500:08:2000:51:2600:08:18
269213MICHAEL CONNORS31MTRUSSVILLE AL 00:51:3600:08:2000:51:2100:08:17
270686CRAIG SATTERFIELD55MBIRMINGHAM AL 00:51:3600:08:2000:51:3600:08:20
271878GENA CASEY26FBIRMINGHAM AL 00:51:3900:08:2000:51:1900:08:17
272855STEPHEN WITHEE29MAUBURN AL 00:51:4100:08:2100:51:0400:08:15
2731131MIMI SEELEY25FHOOVER AL 00:51:4800:08:2200:51:3300:08:19
2741151JIM GORRIE53MBIRMINGHAM AL 00:51:4900:08:2200:51:2400:08:18
275204TIM COLEMAN27MTUSCALOOSA AL 00:51:5200:08:2200:51:3900:08:20
276727STEVEN SPARKS29MSTEELE AL 00:51:5200:08:2200:51:3900:08:20
277735EMILY STEFANOV29FBIRMINGHAM AL 00:51:5300:08:2300:51:3200:08:19
278224ALLEN CRAWFORD49MSPRINGVILLE AL 00:51:5700:08:2300:51:5700:08:23
PlaceBibNAMEAgeSexCITY/STATETeamNameGunTimeGunPaceTagTimeTagPace
279810DAVID WASHINGTON49MMERIDIANVILLE AL 00:51:5800:08:2300:51:4300:08:21
280958ROY CLARKSON39MTRUSSVILLE AL 00:51:5900:08:2300:51:5000:08:22
281236ANTHONY DANTONIO55MDECATUR AL 00:51:5900:08:2300:51:5900:08:23
282918OSCAR MUNOZ29MBIRMINGHAM AL 00:52:0600:08:2500:51:0300:08:15
283341SATYA GULLAPALLI44MHOOVER AL 00:52:0600:08:2500:51:4600:08:21
284628BIJOU PHILLIPS12FBIRMINGHAM AL 00:52:0800:08:2500:51:5200:08:22
2851142MICHAEL POTTER37MJERSEY CITY NJ 00:52:0900:08:2500:52:0900:08:25
2861073SCOTT WINFREE28MHOMEWOOD AL 00:52:0900:08:2500:51:4300:08:21
287210KAMISHA COLVIN39FMOBILE AL 00:52:1400:08:2600:51:4400:08:21
2881039NORIYUKI HANASHIRO57MBIRMINGHAM AL 00:52:1600:08:2600:51:5800:08:23
289437STACY KADLE53FHOMEWOOD AL 00:52:1900:08:2700:52:0300:08:24
290942JAMES WILLIAMS35MBIRMINGHAM AL 00:52:2300:08:2700:52:0900:08:25
291483CHAD LEE37MBIRMINGHAM AL 00:52:2500:08:2800:51:2100:08:17
292307MEREDITH GEORGE35FCALERA AL 00:52:2900:08:2800:52:1600:08:26
293532LISA MCCORMICK36FHOOVER AL 00:52:3200:08:2900:52:2200:08:27
294772LAURIE TISDALE36FBIRMINGHAM AL 00:52:4200:08:3000:52:2500:08:28
295304BROOKS GANT42MVESTAVIA HILLS AL 00:52:4700:08:3100:52:2700:08:28
296305MICHAEL GEER50MBHAM AL 00:52:4900:08:3100:52:3600:08:29
2971059KEN PHILLIPS54MBIRMINGHAM AL 00:52:5300:08:3200:52:5300:08:32
298392MIKE HOOD57MSPRINGVILLE AL 00:52:5300:08:3200:52:5300:08:32
299173PAUL CHEEK36MBIRMINGHAM AL 00:53:0300:08:3400:52:4900:08:32
300584BRITTON NEAL50MBIRMINGHAM AL 00:53:0500:08:3400:52:5700:08:33
301320GERALD GILLESPY50MBIRMINGHAM AL 00:53:0600:08:3400:52:5800:08:33
302682LISA RUTLEDGE42FONEONTA AL 00:53:0800:08:3500:52:5600:08:33
303203JENNIFER COLE43FHOOVER AL 00:53:1300:08:3500:53:0300:08:34
304432KAT JONES34FBIRMINGHAM AL 00:53:1400:08:3600:53:1400:08:36
305693TRAVIS SELF51MBIRMINGHAM AL 00:53:1800:08:3600:53:0300:08:34
306285STEPHANIE FARRINGTON44FBIRMINGHAM AL 00:53:1800:08:3600:53:0100:08:34
307763STEVEN THOMPSON55MMOUNTAIN BROOK AL 00:53:1800:08:3600:52:3500:08:29
3081071LILIAN WAWERU30FPELHAM AL 00:53:2100:08:3700:53:0500:08:34
3091084JEFF MASSIEN65MBIRMINGHAM AL 00:53:2200:08:3700:53:1600:08:36
PlaceBibNAMEAgeSexCITY/STATETeamNameGunTimeGunPaceTagTimeTagPace
310111EKKEHARD BONATZ59MBIRMINGHAM AL 00:53:2300:08:3700:53:1000:08:35
311299RYAN FRIERY33MVESTAVIA HILLS AL 00:53:3000:08:3800:52:5800:08:33
312227BETSY CRIBB22FBIRMINGHAM AL 00:53:3500:08:3900:53:0500:08:34
313426RAVEN JOHNSON19FGADSDEN AL 00:53:3600:08:3900:53:2900:08:38
314555SALLY ANN MISSILDINE16FDECATUR AL 00:53:3700:08:3900:53:1000:08:35
3151050DAVID MANUSH24MBIRMINGHAM AL 00:53:4000:08:4000:53:2800:08:38
316168BRYAN CHACE59MBIRMINGHAM AL 00:53:4000:08:4000:53:3000:08:38
317880NITIN CHHABRA37MBIRMINGHAM AL 00:53:4100:08:4000:53:1900:08:36
318497VANESSA LOLLI28FBIRMINGHAM AL 00:53:4200:08:4000:52:5200:08:32
319502THOMAS LOVE59MVESTAVIA HILLS AL 00:53:4300:08:4000:53:2800:08:38
320553JULIE MISSILDINE52FDECATUR AL 00:53:4400:08:4000:53:1800:08:36
321575BEN MOSELEY29MCENTER POINT AL 00:53:5300:08:4200:52:4900:08:32
3221063STEPHEN RUMBLE28MMARIETTA GA 00:53:5400:08:4200:53:3000:08:38
323873KARI BARTLETT38FBIRMINGHAM AL 00:53:5600:08:4200:53:3900:08:40
324569JASON MORRIS43MVESTAVIA AL 00:53:5700:08:4200:53:1400:08:36
325786VICKIE VARNES52FPELL CITY AL 00:54:0200:08:4300:53:4900:08:41
326508MARY LYNCH25FBIRMINGHAM AL 00:54:1200:08:4500:53:5600:08:42
32788JULIA BEATTIE24FBIRMINGHAM AL 00:54:1300:08:4500:53:5700:08:43
328563ROSEMARY MOORE50FBIRMINGHAM AL 00:54:1400:08:4500:53:5900:08:43
329520MEGAN MATHEWS28FBIRMINGHAM AL 00:54:1600:08:4600:53:5500:08:42
330595COURTNEY OBER28FHOOVER AL 00:54:1700:08:4600:53:5700:08:42
331174ANDREW CHEELY46MSHERMAN TX 00:54:1800:08:4600:53:3000:08:38
332897DAVID HOGUE38MBIRMINGHAM AL 00:54:1800:08:4600:54:0100:08:43
333800JENNIFER WALKER-JOURNEY48FHOMEWOOD AL 00:54:2100:08:4600:54:0500:08:44
334254BRAD DEUEL50MHOOVER AL 00:54:2200:08:4700:54:2200:08:47
335857SCOTT WOOD44MMORRIS AL 00:54:2300:08:4700:53:4200:08:40
336973TOM HOOPER44MNASHVILLE TN 00:54:2500:08:4700:53:4900:08:41
337883DOUGLAS DAVIS II36MTRUSSVILLE AL 00:54:2500:08:4700:53:1900:08:36
338963JAMIE COWIN50MBIRMINGHAM AL 00:54:2600:08:4700:54:1800:08:46
3391111FREDDY RUBIO44MBIRMINGHAM AL 00:54:3200:08:4800:54:2100:08:46
340774KIRK TOOLE43MPELHAM AL 00:54:3300:08:4800:54:3300:08:48
PlaceBibNAMEAgeSexCITY/STATETeamNameGunTimeGunPaceTagTimeTagPace
341679TYLER ROWE25MMOUNT OLIVE AL 00:54:3500:08:4900:54:1300:08:45
342995ANNE RANDALL34FBIRMINGHAM AL 00:54:3700:08:4900:54:1800:08:46
343448THOMAS KENDRICK55MHOMEWOOD AL 00:54:3700:08:4900:54:2800:08:47
344793MICHAEL VIZZINA44MBIRMINGHAM AL 00:54:3900:08:4900:54:3900:08:49
345319SARAH GILL33FBIRMINGHAM AL 00:54:4000:08:4900:54:0100:08:43
346828ANJA WEST39FMCCALLA AL 00:54:4100:08:5000:54:2800:08:48
347571MATT MORRIS38MHELENA AL 00:54:4100:08:5000:54:3300:08:48
348976CHRISTOPHER HUGHES34MGARDENDALE AL 00:54:4100:08:5000:54:2300:08:47
349659EMILY RICHEY25FTUSCALOOSA AL 00:54:4200:08:5000:54:0900:08:44
350870MARK APPELBAUM56MEUGENE OR 00:54:4200:08:5000:54:3000:08:48
351932MIKE SHEPHERD59MHOOVER AL 00:54:4200:08:5000:54:3100:08:48
352871ROBERT APPELBAUM52MBIRMINGHAM AL 00:54:4300:08:5000:54:3100:08:48
3531163KEVIN RUGGIERO35MBIRMINGHAM AL 00:54:4900:08:5100:54:4900:08:51
354390RONNY HOLLAWAY62MBIRMINGHAM AL 00:54:5100:08:5100:54:2100:08:46
3551085BARRY HAMRIC45MBIRMINGHAM AL 00:54:5200:08:5100:54:3300:08:48
356251JEANIE DENNIS47FHELENA AL 00:54:5400:08:5200:54:4300:08:50
357910LAUREN MCCURDY29FBIRMINGHAM AL 00:54:5400:08:5200:54:5400:08:52
3581139VALERIE ESPOSITO BROCK49FHELENA AL 00:54:5600:08:5200:54:2600:08:47
3591010LARA WALTERS43FVESTAVIA HILLS AL 00:55:0000:08:5300:54:4600:08:50
360615JULIE PEARCE43FBIRMINGHAM AL 00:55:0000:08:5300:54:2400:08:47
361589NICK NELSON31MBIRMINGHAM AL 00:55:0100:08:5300:54:2100:08:46
36228ALEX MORROW43MBIRMINGHAM AL 00:55:0100:08:5300:55:0100:08:53
363652MEGAN RAMSEY29FTRUSSVILLE AL 00:55:0300:08:5300:54:2000:08:46
364876JONATHAN BROWN26MGOOSE CREEK SC 00:55:0700:08:5400:54:2000:08:46
365235HEATHER DANIELS38FBIRMINGHAM AL 00:55:0800:08:5400:54:0800:08:44
366627WALKER PHILLIPS13MBIRMINGHAM AL 00:55:1000:08:5400:54:4400:08:50
367999EDINSON RODRIGUEZ28MBIRMINGHAM AL 00:55:1100:08:5400:54:0900:08:44
368624VIRGINIA PHILLIPS46FBIRMINGHAM AL 00:55:1500:08:5500:54:5000:08:51
369352ALAN HARGRAVE61MHOOVER AL 00:55:1700:08:5500:55:1700:08:55
370986MEGAN MCELROY24FATLANTA GA 00:55:1900:08:5600:54:5100:08:51
371987MARSHALL MOORE24MATLANTA GA 00:55:1900:08:5600:54:5100:08:51
PlaceBibNAMEAgeSexCITY/STATETeamNameGunTimeGunPaceTagTimeTagPace
372891REESE GOODE33MBIRMINGHAM AL 00:55:2200:08:5600:54:3000:08:48
373503ANDREW LOVE48MVESTAVIA HILLS AL 00:55:2300:08:5600:55:2300:08:56
3741076CHRISTOPHER BALCERZAK32MHOOVER AL 00:55:2400:08:5700:55:2400:08:57
3751133PATRICK BRANNON34MBIRMINGHAM AL 00:55:2700:08:5700:55:2100:08:56
3761120JACKSON MCCARTHY46MBIRMINGHAM AL 00:55:2900:08:5700:55:2900:08:57
377840LAURIE WILBANKS50FSYLACAUGA AL 00:55:3200:08:5800:54:4000:08:49
37849DARNELL ALLEN47FBIRMINGHAM ALCADENCE RUN COACHING WHIT00:55:3400:08:5800:54:5800:08:52
379776NICK TOTH35MBIRMINGHAM AL 00:55:4100:08:5900:54:5700:08:52
380172CHRIS CHAPMAN43MHOMEWOOD AL 00:55:4400:09:0000:55:1300:08:55
3811029SUSAN COMENSKY51FBIRMINGHAM AL 00:55:4400:09:0000:55:4400:09:00
3821115KENNY FORTSON60MBIRMINGHAM AL 00:55:4900:09:0100:55:1800:08:56
3831054MATTHEW MITCHELL36MBIRMINGHAM AL 00:55:4900:09:0100:55:2400:08:57
384649STEPHEN PUDNER34MHOMEWOOD AL 00:55:4900:09:0100:55:1500:08:55
3851087JOSHUA BEAN41MGARDENDALE AL 00:55:5200:09:0100:55:0200:08:53
386348BRYAN HANCOCK43MHOMEWOOD AL 00:55:5200:09:0100:55:3600:08:58
387375JOHN HIGH51M  00:55:5400:09:0100:55:3600:08:58
3881026ROBERT CASEY33MALABASTER AL 00:56:0000:09:0200:55:0200:08:53
3891128TERRY SR EDWARDS47MODENVILLE AL 00:56:0000:09:0200:55:5300:09:01
3901068FREDDY TSE38MCHELSEA AL 00:56:0100:09:0200:55:0300:08:53
391928MARY CLAIRE RUSHIN28FBIRMINGHAM AL 00:56:0100:09:0300:55:2500:08:57
3921103ANIL CHADHA37MHOMEWOOD AL 00:56:0600:09:0300:55:4300:09:00
393241WILL DAVIS34MBIRMINGHAM AL 00:56:0700:09:0400:55:1600:08:55
394888KEY FOSTER14MBIRMINGHAM AL 00:56:0800:09:0400:56:0800:09:04
395141JEFF BURBANK54MMAYLENE AL 00:56:0900:09:0400:55:4200:09:00
396188SAM CLEMONS22MALABASTER AL 00:56:1100:09:0400:55:5600:09:02
39782DAVID BARRY54MBIRMINGHAM AL 00:56:1300:09:0400:55:3600:08:58
398207CLINTON COLMENARES47MVESTAVIA HILLS AL 00:56:1400:09:0500:55:3700:08:59
3991008JESSICA TERRY28FBIRMINGHAM AL 00:56:1400:09:0500:55:4800:09:00
400568PHIL MORRIS44MCOLUMBIANA AL 00:56:1600:09:0500:56:0300:09:03
401420LAUREN JEWETT28FMETAIRIE LA 00:56:2400:09:0600:55:2400:08:56
4021155RICK GRAMMER60MHOOVER AL 00:56:2700:09:0700:55:4600:09:00
PlaceBibNAMEAgeSexCITY/STATETeamNameGunTimeGunPaceTagTimeTagPace
403506CHRIS LYLES44MCALERA AL 00:56:2800:09:0700:56:1300:09:04
404794CHASSI WADDELL28FFULTONDALE AL 00:56:3000:09:0700:55:5600:09:02
405228MARK CRISWELL50MWARRIOR AL 00:56:3000:09:0700:56:1900:09:05
406357ROBERT HARRIS33MLEEDS AL 00:56:3300:09:0800:55:2500:08:57
407977DUSTY JONES31MMCCALLA AL 00:56:4000:09:0900:56:0300:09:03
408292TARA FOSTER27FPINSON AL 00:56:4700:09:1000:56:3500:09:08
409742KATRINA STIDHAM40FBIRMINGHAM AL 00:56:5100:09:1100:55:5200:09:01
410762JULIE THOMASSON54FMOBILE AL 00:56:5200:09:1100:56:2700:09:07
411442LISA KEARNEY43FBIRMINGHAM AL 00:56:5500:09:1100:56:5500:09:11
412402JEAN POWERS52FMOBILE AL 00:56:5800:09:1200:56:3300:09:08
4131104FRANCES LYON13FMOUNTAIN BROOK AL 00:57:0000:09:1200:56:4100:09:09
41497GAIL BEVIER62FBIRMINGHAM AL 00:57:0000:09:1200:56:3500:09:08
415279DEBBIE EVANS58FSPRINGVILLE AL 00:57:0100:09:1200:56:2000:09:06
416462KIM LACKEY41FBIRMINGHAM AL 00:57:0200:09:1200:56:2900:09:07
417773WILLIAM TOERPE30MBIRMINGHAM AL 00:57:0400:09:1300:56:3100:09:07
418363JOHNE HAWKINS51MBIRMINGHAM AL 00:57:0700:09:1300:57:0700:09:13
419586VAN NELSON57MGUIN AL 00:57:1300:09:1400:56:2600:09:07
420909TREY MCCLURE38MBIRMINGHAM AL 00:57:1400:09:1400:57:1400:09:14
4211006TERRILYN STEPHENS28FBIRMINGHAM AL 00:57:1500:09:1400:56:3600:09:08
422666STEVE RODGERS55MMERIDIANVILLE AL 00:57:1500:09:1400:57:1500:09:14
4231114HANNAH MACHEMEHL25FBIRMINGHAM AL 00:57:1800:09:1500:56:5600:09:11
42443HEATHER ACKER31FANNISTON AL 00:57:1800:09:1500:56:2500:09:06
425577MIKE MOSES41MBIRMINGHAM AL 00:57:1900:09:1500:56:4500:09:10
426863TRINA YARNALL35FBIRMINGHAM AL 00:57:2100:09:1500:56:4600:09:10
427997COLIN RICHARDSON35MBIRMINGHAM AL 00:57:2400:09:1600:56:3800:09:08
428684MELISSA SANCHEZ28FFULTONDALE AL 00:57:2500:09:1600:56:3200:09:07
429741ANDREW STEWART27MHOMEWOOD AL 00:57:2500:09:1600:56:3700:09:08
43064BEN ASHBY38MBIRMINGHAM AL 00:57:3300:09:1700:56:5500:09:11
431446RICHARD KELLEY38MATHENS AL 00:57:3300:09:1700:57:3300:09:17
4321144UNKNOWN UNKNOWN99UUNKNOWN AL 00:57:3500:09:1800:57:2100:09:15
433510ANDREW MACE33MHUNTSVILLE AL 00:57:3600:09:1800:57:0100:09:12
PlaceBibNAMEAgeSexCITY/STATETeamNameGunTimeGunPaceTagTimeTagPace
434736KELSEY STEIN26FBIRMINGHAM AL 00:57:3700:09:1800:57:0100:09:12
435753DANNY TACKETT10MBIRMINGHAM AL 00:57:3700:09:1800:56:4800:09:10
436393TERRY HOOKS63FBIRMINGHAM AL 00:57:3900:09:1800:56:5600:09:11
437834ROBIN WHITE35FVESTAVIA AL 00:57:4100:09:1900:57:2300:09:16
4381132IRELI ALVAREZ31FHOOVER AL 00:57:4200:09:1900:57:1700:09:15
439253ADAM DESCHAMPS45MMOODY AL 00:57:4300:09:1900:56:3500:09:08
440313KENDALL GIBSON31FHOOVER AL 00:57:4300:09:1900:57:0700:09:13
441540ANDREW MCKINNON41MBIRMINGHAM AL 00:57:5000:09:2000:57:3700:09:18
442728BRADY SPENCER26FFULTONDALE AL 00:57:5200:09:2000:57:3400:09:18
443967JORGE DE LA TORRE51MBIRMINGHAM AL 00:57:5300:09:2100:57:1300:09:14
444703FINN SHERER6MONEONTA ALVULCAN'S BUTTOCKS00:57:5800:09:2100:57:1400:09:14
445215JODY COOMBS65FBIRMINGHAM AL 00:57:5900:09:2200:57:3900:09:18
446378NICK HILL51MPINSON AL 00:58:0700:09:2300:57:2100:09:15
447856JERALEE WOLF33FBIRMINGHAM AL 00:58:0800:09:2300:57:2300:09:16
448998MOLLY RICHARDSON28FBIRMINGHAM AL 00:58:0900:09:2300:57:2300:09:16
449283JEFF FARMER38MTRUSSVILLE AL 00:58:1000:09:2300:57:5900:09:22
450892DOUG GREEN46MBIRMINGHAM AL 00:58:1400:09:2400:57:1300:09:14
451788JUDY VATELLA54FBIRMINGHAM AL 00:58:1700:09:2400:58:0300:09:22
452166MARIA CECIL47FBIRMINGHAM AL 00:58:1900:09:2500:58:0200:09:22
4531016RONNIE YANCEY54MBIRMINGHAM AL 00:58:2500:09:2600:57:4600:09:20
454513ANDREW MARLIN50MBIRMINGHAM AL 00:58:2600:09:2600:57:4000:09:18
455431KRISTIE JONES37FHOOVER AL 00:58:3200:09:2700:58:0200:09:22
456886FRANK EGAN36MPELHAM AL 00:58:3200:09:2700:58:1400:09:24
457989SHAWN O'BRIEN43MBIRMINGHAM AL 00:58:3400:09:2700:57:3300:09:17
458804NEIL WALTON52MHOOVER AL 00:58:4300:09:2900:58:4300:09:29
459859KATHLEEN WOODRUFF29FVESTAVIA HILLS AL 00:58:4400:09:2900:58:2000:09:25
460130CHARLIE BROWN60MBIRMINGHAM AL 00:58:4500:09:2900:58:3200:09:27
461277BENJAMIN ETHERIEDGE39MWARRIOR AL 00:58:4800:09:2900:58:1300:09:24
462395CHRIS HOOKS40MBIRMINGHAM AL 00:58:4900:09:3000:58:2800:09:26
4631153AIDAN VROCHER11MTRUSSVILLE AL 00:58:5200:09:3000:58:1400:09:24
464394KIMBERLY HOOKS40FBIRMINGHAM AL 00:58:5300:09:3000:58:3200:09:27
PlaceBibNAMEAgeSexCITY/STATETeamNameGunTimeGunPaceTagTimeTagPace
465465KRISTINA LAFOUNTAIN39FSAINT CLOUD FL 00:59:0200:09:3200:58:1900:09:25
466169JENNIFER CHADHA37FBIRMINGHAM AL 00:59:0400:09:3200:58:4100:09:28
467339MIKE GRIZZELL53MJASPER AL 00:59:0600:09:3200:58:0700:09:23
468933BUDDY SMITH56MBIRMINGHAM AL 00:59:0700:09:3300:58:3800:09:28
46994BRIAN BERG40MBIRMINGHAM AL 00:59:1400:09:3400:58:2300:09:25
470291JJ FOSTER32MTRUSSVILLE AL 00:59:1500:09:3400:58:5800:09:31
471453SANGAE KIM-PARK58FBIRMINGHAM AL 00:59:1700:09:3400:58:3900:09:28
472582LISA NAGY49FHOMEWOOD AL 00:59:1800:09:3400:58:2800:09:26
4731109DOUG ALLEN58MVESTAVIA HILLS AL 00:59:1900:09:3400:59:1900:09:34
4741116WILLIAM CROWSON55MBIRMINGHAM AL 00:59:2000:09:3500:58:4400:09:29
475494LAUREN LOCKHART24FHOMEWOOD AL 00:59:2100:09:3500:58:4800:09:29
476105KEN BLACKMON55MBIRMINGHAM AL 00:59:2200:09:3500:59:1000:09:33
477752STEVEN TACKETT11MBIRMINGHAM AL 00:59:2700:09:3600:58:3800:09:28
478616MICHELE PEARSON45FHOOVER AL 00:59:3200:09:3700:58:3400:09:27
479454JUSTIN KING33MVESTAVIA AL 00:59:3700:09:3700:58:2900:09:26
480273STACEY ELROD29FMOODY AL 00:59:4000:09:3800:58:3100:09:27
481263ALLAN DOWNS44MALABASTER AL 00:59:4300:09:3800:58:5500:09:31
4821077JENNY BARRY49FVESTAVIA AL 00:59:4600:09:3900:59:2700:09:36
4831147KNOX WILLIAMS49MBIRMINGHAM AL 00:59:4700:09:3900:59:3000:09:36
484960BARRY CONAWAY17MODENVILLE AL 00:59:4800:09:3900:59:4200:09:38
485208CHRIS COLPACK49MBIRMINGHAM AL 00:59:5000:09:3900:59:1200:09:33
486966CAROL DE LA TORRE50FBIRMINGHAM AL 00:59:5000:09:4000:59:1000:09:33
487261NEIL DOUGHERTY27MMOODY AL 00:59:5300:09:4000:58:5500:09:31
4881161SUSANNE MOORE41FPINSON AL 00:59:5300:09:4000:59:1400:09:34
4891002MELISSA SETON46FBIRMINGHAM AL 00:59:5400:09:4000:59:1300:09:34
4901056PHILIP OREILLY47MBIRMINGHAM AL 00:59:5500:09:4000:58:5800:09:31
491539MATT MCKENZIE32MBIRMINGHAM ALCOUNSELORS ON THE RUN00:59:5600:09:4000:59:2900:09:36
492957LEAH CHAPMAN28MVESTAVIA AL 00:59:5800:09:4100:59:1800:09:34
4931172JAMES RAMSEN34MTRUSSVILLE AL 00:59:5800:09:4100:59:1400:09:34
494259ROBYN DODSON38FTRUSSVILLE AL 00:59:5800:09:4100:59:1600:09:34
495823LANCE WEEKS51MMOUNT OLIVE AL 01:00:0100:09:4100:59:0900:09:33
PlaceBibNAMEAgeSexCITY/STATETeamNameGunTimeGunPaceTagTimeTagPace
496642JOHN PRESTRIDGE32MALABASTER AL 01:00:0200:09:4100:59:3300:09:37
4971065STEVE SMITH57MASHLAND AL 01:00:0200:09:4100:59:2700:09:36
498805SAM WARBINGTON60MBIRMINGHAM AL 01:00:0500:09:4200:59:5600:09:40
4991058JASON PENG27MBIRMINGHAMMINGHAM AL 01:00:0600:09:4200:59:4800:09:39
500676JAMIE ROUTMAN31FBIRMINGHAM AL 01:00:0700:09:4200:59:5800:09:41
501117ALLISON BOYD20FASHVILLE AL 01:00:1000:09:4300:59:2900:09:36
502146MOODY BURNS54MNORTHPORT AL 01:00:1100:09:4300:59:5600:09:40
503371GARRET HERRINGDON49MMAYLENE AL 01:00:1300:09:4300:59:1900:09:35
504391MICHAEL HOLMES45MCHELSEA AL 01:00:1700:09:4400:59:4700:09:39
505407ALISON HULCHER46FHOOVER AL 01:00:1900:09:4401:00:0000:09:41
506128RICHARD BROOME61MBIRMINGHAM AL 01:00:2100:09:4400:59:4300:09:38
507844DEBORAH WILLIAMS55FBESSEMER AL 01:00:2200:09:4500:59:1700:09:34
508356NICKI HARRIS43FBIRMINGHAM AL 01:00:2300:09:4500:59:3800:09:38
509386PAUL HOFFMAN51MBIRMINGHAM AL 01:00:2300:09:4500:59:3900:09:38
5101113JARED LEADER24MVESTAVIA HILLS AL 01:00:2600:09:4501:00:0600:09:42
511660ANDREW RICKLES39MPINSON AL 01:00:2600:09:4500:59:3200:09:36
512594AMANDA NUTTER32FBIRMINGHAM AL 01:00:2700:09:4500:59:5700:09:41
513561LAUREN MOLINA28FBIRMINGHAM AL 01:00:2700:09:4500:59:5600:09:40
514547JAMES MERRELL48MBIRMINGHAM AL 01:00:2700:09:4500:59:2300:09:35
515670BETH ROSE41FBIRMINGHAM AL 01:00:2800:09:4601:00:0500:09:42
516724GENE SNOW60MALPHARETTA GA 01:00:2900:09:4601:00:0000:09:41
517365MARCIE HAYNIE43FBIRMINGHAM AL 01:00:2900:09:4601:00:0000:09:41
51871JEFF BAHR38MHOOVER AL 01:00:2900:09:4600:59:5100:09:40
51972ASHLEY BAHR34FHOOVER AL 01:00:2900:09:4600:59:5200:09:40
520429FRANK JONES39MJASPER AL 01:00:3200:09:4601:00:2400:09:45
521262MELISSA DOUGHERTY25FMOODY AL 01:00:3200:09:4600:59:3500:09:37
522384JESSICA HIX32FBESSEMER AL 01:00:3600:09:4700:59:3100:09:36
523908SAMANTHA MCCLUNEY39FCHELSEA AL 01:00:3900:09:4700:59:5500:09:40
524336JENNIFER GREMMELS33FTRUSSVILLE AL 01:00:4000:09:4701:00:4000:09:47
525711MIKE SLOANE59MMOUNTAIN BROOK AL 01:00:4000:09:4800:59:3300:09:37
5261082AMY MERK41FBIRMINGHAM AL 01:00:4300:09:4801:00:1300:09:43
PlaceBibNAMEAgeSexCITY/STATETeamNameGunTimeGunPaceTagTimeTagPace
527552SCOTT MISSILDINE53MDECATUR AL 01:00:4600:09:4901:00:2000:09:44
5281110JOHN SCOTT31MCHELSEA AL 01:00:5100:09:4901:00:1900:09:44
529604VICTORIA OTT44FBIRMINGHAM AL 01:00:5200:09:4901:00:1400:09:43
530288JESSICA FLEMING33FVESTAVIA HILLS AL 01:00:5400:09:5001:00:1800:09:44
531370RAYMOND HERB54MCHELSEA AL 01:00:5800:09:5001:00:5800:09:50
532470KEVIN LANE42MBIRMINGHAM AL 01:01:0000:09:5101:01:0000:09:51
5331160JACOB HUFFSTUTLER30MHELENA AL 01:01:0000:09:5101:00:2100:09:44
534142BRETT BURBANK21MMAYLENE AL 01:01:0200:09:5101:00:3500:09:47
535854STEVE WISEMAN60MBIRMINGAHM AL 01:01:0400:09:5101:01:0400:09:51
536708ROBERT SIMS58MHOMEWOOD AL 01:01:1000:09:5201:00:2000:09:44
537985PAUL MATHEWS41MBIRMINGHAM AL 01:01:1200:09:5301:00:0900:09:43
538935DAN THOMASSON43MMOUNTAIN BROOK AL 01:01:1300:09:5301:00:5400:09:50
539701JEREMY SHERER36MONEONTA ALVULCAN'S BUTTOCKS01:01:1400:09:5301:00:3000:09:46
540122ALLISON BREED27FPORTLAND OR 01:01:1600:09:5301:00:5000:09:49
541332BLAKE GRAY40FHOOVER AL 01:01:1900:09:5401:00:2000:09:44
542333KEVIN GRAY40MHOOVER AL 01:01:1900:09:5401:00:2000:09:44
543493CHARLES LOCKHART62MVESTAVIA HILLS AL 01:01:2400:09:5501:00:5000:09:49
544969CHIP FERRELL31MBIRMINGHAM AL 01:01:2800:09:5501:00:5800:09:50
545664GORDIE ROBINSON59MBIRMINGHAM AL 01:01:2800:09:5501:00:3200:09:46
546490DAVID LINK55MBIRMINGHAM AL 01:01:2900:09:5501:00:1800:09:44
547784WARREN VANDENTOP43MBIRMINGHAM AL 01:01:2900:09:5501:01:1300:09:53
5481130TERRY JR EDWARDS17MARGO AL 01:01:3900:09:5701:01:3200:09:56
549899MICHAEL HOLT51MBIRMINGHAM AL 01:01:4100:09:5701:01:2800:09:55
550368VICTOR HENKEN53MHOMEWOOD AL 01:01:4400:09:5801:01:1800:09:54
551769BRANDON THURBER34MIRONDALE AL 01:01:4700:09:5801:00:5600:09:50
552367TED HEGENBARTH74MGADSON AL 01:01:4800:09:5901:01:2600:09:55
553573JACK MORROW14MBIRMINGHAM AL 01:01:5000:09:5901:01:1100:09:53
554485TIM LEMSKY46MBIRMINGHAM AL 01:01:5200:09:5901:01:5200:09:59
555566HILARY MORENO45FBIRMINGHAM AL 01:01:5500:10:0001:01:1000:09:52
5561164TODD HONEA38MWESTOVER AL 01:01:5500:10:0001:01:1100:09:52
557118HANNAH BOYD19FASHVILLE AL 01:01:5500:10:0001:01:1300:09:53
PlaceBibNAMEAgeSexCITY/STATETeamNameGunTimeGunPaceTagTimeTagPace
558596PAT O'BRIEN69MALABASTER AL 01:01:5800:10:0001:01:0300:09:51
559704RONALD SHINN66MBIRMINGHAM AL 01:01:5900:10:0001:01:5900:10:00
560618CHARLOTTE PELZ38FATLANTA GA 01:02:0300:10:0101:01:0400:09:51
561831TARA WHEELER37FFOLEY AL 01:02:0300:10:0101:01:4900:09:59
562925REBEKAH POWELL24FBIRMINGHAM AL 01:02:0600:10:0101:01:3900:09:57
5631005KYLE SMITH46MCLANTON AL 01:02:0600:10:0101:01:0800:09:52
5641048ANA LEWIS40FBIRMINGHAM AL 01:02:1000:10:0201:01:1200:09:53
565750WES TACKETT38MBIRMINGHAM AL 01:02:1700:10:0301:01:2500:09:55
566158DOUG CARDER44MVESTAVIA AL 01:02:1700:10:0301:01:4500:09:58
567102GIA BIVENS38FBIRMINGHAM AL 01:02:2100:10:0401:01:2700:09:55
568766PHILIP THOMPSON35MBIRMINGHAM AL 01:02:2100:10:0401:02:1100:10:02
569765KATHERINE THOMPSON36FBIRMINGHAM AL 01:02:2200:10:0401:02:1100:10:02
570970KENYA FRANKLIN43MBIRMINGHAM AL 01:02:2500:10:0401:01:2900:09:55
571948CISSI BERNHARD57FBIRMINGHAM AL 01:02:2500:10:0401:01:3900:09:57
572648AGYA PUDNER35FHOMEWOOD AL 01:02:2600:10:0501:02:2600:10:05
573252MEG DENSON29FHELENA AL 01:02:2800:10:0501:01:3000:09:56
574920MEREDITH NUNLEY24FBIRMINGHAM AL 01:02:2900:10:0501:01:5000:09:59
575275STEPHANIE ENSMINGER36FPELHAM AL 01:02:3000:10:0501:01:5800:10:00
5761129MELANIE EDWARDS20FARGO AL 01:02:3200:10:0601:02:3200:10:06
577489SUSAN LINES49FINDIAN SPRINGS AL 01:02:3300:10:0601:02:0600:10:01
578473KATHRYN LAVENDER45FBIRMINGHAM AL 01:02:3500:10:0601:01:5000:09:59
5791168RANDY ALDRICH51MTRUSSVILLE AL 01:02:3700:10:0601:02:1000:10:02
5801143STEPHEN BLANKENSHIP42MJASPER AL 01:02:4500:10:0801:01:5400:10:00
581414AMANDA JACKSON29FLEEDS AL 01:02:4700:10:0801:02:0000:10:00
582990DENISE OWEN34FMOODY AL 01:02:5400:10:0901:02:1800:10:03
5831053ERIN MEACHAM25FBIRMINGHAM AL 01:02:5600:10:1001:02:1400:10:03
5841045CAROLINE KING24FBIRMINGHAM AL 01:02:5700:10:1001:02:1500:10:03
585219LARONDA CORRIN45FBIRMINGHAM AL 01:02:5800:10:1001:02:3900:10:07
5861055JENNIFER MORPHEW37FBIRMINGHAM AL 01:03:0100:10:1001:02:3000:10:05
587930ERIN SEARSON32FBIRMINGHAM AL 01:03:0200:10:1001:02:4100:10:07
588812JANET WATKINS58FBIRMINGHAM AL 01:03:0300:10:1101:02:0200:10:01
PlaceBibNAMEAgeSexCITY/STATETeamNameGunTimeGunPaceTagTimeTagPace
589306SCOTT GEORGE52MBIRMINGHAM AL 01:03:0900:10:1201:03:0900:10:12
590195APRIL CLOUD43FODENVILLE AL 01:03:1000:10:1201:02:2000:10:04
591906CHRIS LENOIR41MCALERA AL 01:03:1000:10:1201:02:3100:10:05
5921009LUIS VALVERDE43MBIRMINGHAM AL 01:03:1200:10:1201:02:4800:10:08
5931000CHRISTEL SANCHEZ30FMOODY AL 01:03:1500:10:1301:02:3900:10:07
594944MILES WRIGHT48MHOMEWOOD AL 01:03:1600:10:1301:02:4400:10:07
595170ANDREW CHAMBERLAIN38MHELENA AL 01:03:1900:10:1301:02:1500:10:03
596546ZULFI MERCHANT49MHELENA AL 01:03:2000:10:1301:02:3700:10:06
597968RAYNA DYCK34FHOMEWOOD AL 01:03:2900:10:1501:02:4500:10:08
5981083SEASON HILL41FVESTAVIA AL 01:03:3200:10:1501:02:4600:10:08
599463MATTHEW LACKEY39MBIRMINGHAM AL 01:03:3200:10:1501:02:5800:10:10
600330GREG GRAHAM57MHOMEWOOD AL 01:03:3300:10:1501:02:4700:10:08
601974BILL HOST58MIRONDALE AL 01:03:3300:10:1501:02:4600:10:08
602138DOUG BRYSON54MBIRMINGHAM AL 01:03:3900:10:1601:03:3000:10:15
603126ERIN BRISS26FCHATTANOOGA TN 01:03:4100:10:1701:02:4200:10:07
604350BROOKIE HARBISON44FALABASTER AL 01:03:5100:10:1801:03:2700:10:14
605400BETH HOUSE42FMONTEVALLO AL 01:03:5200:10:1801:03:2700:10:14
606780JASON TURNBOW40MBIRMINGHAM AL 01:03:5500:10:1901:03:2000:10:13
607124HUNTER BRIDWELL32MBESSEMER AL 01:03:5700:10:1901:03:4600:10:18
608825AMANDA WELLS27FBIRMINGHAM AL 01:03:5900:10:2001:03:1200:10:12
6091108ALLI NATIONS32FHOOVER AL 01:04:0400:10:2001:03:0500:10:11
61081MATTHEW BARNES32MBIRMINGHAM AL 01:04:0900:10:2101:03:3700:10:16
611882KRISTI COATS21FBIRMINGHAM AL 01:04:1600:10:2201:03:5400:10:19
612125SARAH BRILEY20FHELENA AL 01:04:1600:10:2201:03:4800:10:18
613464NICHOLAS LAFOUNTAIN45MSAINT CLOUD FL 01:04:1700:10:2301:03:3400:10:16
614328NIKKI GRABELDINGER47FMAYLENE ALCADENCE RUN COACHING WHIT01:04:1800:10:2301:03:4200:10:17
615293HANNAH FOUST26FBIRMINGHAM ALCADENCE RUN COACHING WHIT01:04:1900:10:2301:03:4200:10:17
616310KATIE GIBSON31FBIRMINGHAM AL 01:04:2100:10:2301:03:2500:10:14
617416JESSICA JASIEN30FBIRMINGHAM AL 01:04:2400:10:2401:03:2300:10:14
618533JENNIFER MCCORMICK35FBIRMINGHAM AL 01:04:2400:10:2401:04:0800:10:21
619721JORDAN SMITH24MBIRMINGHAM AL 01:04:2500:10:2401:04:2500:10:24
PlaceBibNAMEAgeSexCITY/STATETeamNameGunTimeGunPaceTagTimeTagPace
620792MARY BETH VINES26FUNITED STATES AL 01:04:2700:10:2401:03:5800:10:20
621858MARY WOODRUFF26FBIRMINGHAM AL 01:04:2800:10:2401:04:0400:10:20
622915SARA CHANDLER MITCHELL18FBIRMINGHAM AL 01:04:2900:10:2401:03:4800:10:18
623919SARAH WINSTON NATHAN17FBIRMINGHAM AL 01:04:2900:10:2401:03:4700:10:18
624914JENNIFER MITCHELL46FBIRMINGHAM AL 01:04:3000:10:2501:03:4800:10:18
625202LESLIE COKER47FPINSON AL 01:04:3200:10:2501:03:5000:10:18
6261070MEREDITH VINSON45FHOOVER AL 01:04:4300:10:2701:03:5400:10:19
627751LAUREN TACKETT38FBIRMINGHAM AL 01:04:4600:10:2701:03:5600:10:19
628732VASTINE STABLER53MBIRMINGHAM AL 01:04:4600:10:2701:04:2000:10:23
629209KEN COLVERT37MDORA AL 01:04:4700:10:2701:04:2100:10:23
630460CHRYSTAL KRACKE40FVESTAVIA AL 01:04:4700:10:2701:04:0600:10:21
631133GRAHAM BROWN30MVESTAVIA HILLS AL 01:04:5300:10:2801:03:5400:10:19
6321013MICHAEL WOLFE43MBIRMINGHAM AL 01:04:5400:10:2801:04:3800:10:26
633853AMY WILSON31FBIRMINGHAM AL 01:04:5600:10:2901:04:4100:10:26
634496JANIE LOGAN27FBIRMINGHAM AL 01:04:5600:10:2901:04:0000:10:20
635397WHITTLEY HOPPER26FCALERA AL 01:05:0300:10:3001:04:1400:10:22
63655SHANNON AMMONS44FBIRMINGHAM AL 01:05:0500:10:3001:04:4200:10:26
637309DARRELL GIBSON44MHOMEWOOD AL 01:05:0700:10:3101:04:1600:10:22
6381036GEORGE GASKIN30MHOMEWOOD AL 01:05:0700:10:3101:04:1100:10:22
639733ALLAN STAMM66MBIRMINGHAM AL 01:05:0800:10:3101:04:2700:10:24
640347CAITLIN HALPERIN21FBIRMINGHAM AL 01:05:1100:10:3101:04:1700:10:23
641841JACK WILBANKS16MSYLACAUGA AL 01:05:1100:10:3101:04:1900:10:23
6421140CLAYTON TURNER33MADAMSVILLE AL 01:05:1400:10:3201:04:0700:10:21
643637BROOKE POIRIER43FLEEDS AL 01:05:1700:10:3201:04:2600:10:24
644881HENRY CHRISTIAN48MCHELSEA AL 01:05:2500:10:3401:05:0700:10:31
6451121JEFF PARMER51MMOUNTAIN BROOK AL 01:05:2600:10:3401:04:5500:10:29
646905MATTHEW LEDUKE44MGUIN AL 01:05:2900:10:3401:04:4200:10:27
647962LAUREN COPELAND23FBIRMINGHAM AL 01:05:3300:10:3501:04:4700:10:27
648278CAROLINE ETHERIEDGE39FWARRIOR AL 01:05:3800:10:3601:05:0200:10:30
649937KACY TUCKER26FMOUNT OLIVE AL 01:05:3900:10:3601:04:5900:10:29
650678SARA ROWE27FMOUNT OLIVE AL 01:05:3900:10:3601:04:5900:10:29
PlaceBibNAMEAgeSexCITY/STATETeamNameGunTimeGunPaceTagTimeTagPace
651822KELLY WEEKLEY31FBIRMINGHAM AL 01:05:4200:10:3601:05:1400:10:32
652311AMY GIBSON31FBIRMINGHAM AL 01:05:4300:10:3601:04:4400:10:27
653680MELANIE RUBERY41FBIRMINGHAM AL 01:05:4300:10:3601:05:1600:10:32
654585MATT NEIGHBORS30MTUSCALOOSA AL 01:05:4500:10:3701:05:2400:10:33
6551011BETH WOLFE36FBIRMINGHAM AL 01:05:5100:10:3801:05:3500:10:35
6561124RICHARD BOTTSFORD59MBIRMINGHAM AL 01:05:5400:10:3801:05:5400:10:38
6571152RANDALL HUDSON51MGARDENDALE AL 01:05:5500:10:3801:05:5500:10:38
6581066KEVIN TAYLOR30MCALERA AL 01:05:5600:10:3801:05:3300:10:35
659675CINDI ROUTMAN58FBIRMINGHAM AL 01:05:5600:10:3801:05:1200:10:31
660214SUSAN COOK44FODENVILLE AL 01:05:5700:10:3901:05:3200:10:35
6611096THOMAS HALL55MBIRMINGHAM AL 01:05:5900:10:3901:04:5700:10:29
6621106ADRIENNE CARTER39FBIRMINGHAM AL 01:05:5900:10:3901:04:5800:10:29
663782LARRY TYSON62MBIRMINGHAM ALCOUNSELORS ON THE RUN01:06:0100:10:3901:05:3200:10:35
664603KRISTEN OSBORNE30FBIRMINGHAM AL 01:06:0200:10:3901:04:5900:10:29
665517ABIGAIL MARTIN23FBIRMINGHAM AL 01:06:0500:10:4001:05:0300:10:30
6661032ALAN DEMARCO42MBESSEMER AL 01:06:0500:10:4001:05:2600:10:34
667874ROGER BOAZ37MMC CALLA AL 01:06:0600:10:4001:05:2500:10:33
668697KAYE SHARP45FBIRMINGHAM AL 01:06:0800:10:4001:05:5400:10:38
669626SCOUT PHILLIPS15FBIRMINGHAM AL 01:06:1300:10:4101:05:5700:10:39
670574SAM MORROW14MBIRMINGHAM AL 01:06:1700:10:4201:05:3900:10:36
671592JESSICA NICHOLS25FBIRMINGHAM AL 01:06:1900:10:4201:06:0300:10:40
6721165KATELYN STANIER27FHOMEWOOD AL 01:06:2100:10:4201:06:0000:10:39
673734EMILY STANLEY29FBIRMINGHAM AL 01:06:2200:10:4301:05:2400:10:33
674775CHRIS TOTH60MPELHAM AL 01:06:2600:10:4301:05:4200:10:36
67583SAMM BARTEE50FBIRMINGHAM AL 01:06:2600:10:4301:05:3600:10:35
676474JOSEPH LAWHORN33MHOOVER AL 01:06:3500:10:4501:06:1300:10:41
677696SARAH SHAFFIELD31FHOMEWOOD AL 01:06:3600:10:4501:05:5800:10:39
678425EMILY JOHNSON26FBIRMINGHAM AL 01:06:4400:10:4601:06:0800:10:40
679321JOSH GLIDEWELL29MTRUSSVILLE AL 01:06:4600:10:4701:05:3800:10:36
680783CLARK UNDERBAKKE45MBIRMINGHAM AL 01:06:5000:10:4701:06:0100:10:39
681428GORMAN JONES56MBIRMINGHAM AL 01:06:5000:10:4701:06:0200:10:39
PlaceBibNAMEAgeSexCITY/STATETeamNameGunTimeGunPaceTagTimeTagPace
682748ASHTON SUTPHIN29FBIRMINGHAM AL 01:06:5100:10:4701:06:1000:10:41
683954SETH CANNON32MHOOVER AL 01:06:5300:10:4801:06:1200:10:41
684953JESSICA CANNON29FHOOVER AL 01:06:5300:10:4801:06:1200:10:41
685271CAROL EDWARDS29FNOTASULGA AL 01:06:5800:10:4801:06:0900:10:41
686200CHERYL COFIELD43FALABASTER AL 01:06:5800:10:4901:06:4500:10:46
68760KRISTINA ANDERSON46FCUMMING GA 01:07:0000:10:4901:06:3000:10:44
688824LARRY WELLS56MBIRMINGHAM AL 01:07:1300:10:5101:06:0500:10:40
689745MARIE STOWERS50FCUMMING GA 01:07:1800:10:5201:06:4900:10:47
690656JOE REISS49MHOOVER AL 01:07:2400:10:5301:06:4300:10:46
691798MATTHEW WALKER35MHOMEWOOD AL 01:07:2600:10:5301:07:2600:10:53
692681CATHY RUMBLE56FAIKEN SC 01:07:2700:10:5301:07:0400:10:49
69362FRANK ANGSTADT27MHOOVER AL 01:07:2800:10:5301:06:3900:10:45
69466KELSIE AUSTIN24FFLEMING ISLAND FL 01:07:3300:10:5401:07:1000:10:50
69542DANA ACHARYA35FBIRMINGHAM AL 01:07:3500:10:5401:07:1300:10:51
69641CHETHAN ACHARYA38MBIRMINGHAM AL 01:07:3600:10:5501:07:1300:10:51
697294KATIE FOWLER19FBIRMINGHAM AL 01:07:4100:10:5501:06:5900:10:49
698668WILLIAM ROHRER29MNORTHPORT AL 01:07:4900:10:5701:06:5300:10:48
699808KYLE WARRAM36MHELENA AL 01:07:4900:10:5701:06:5300:10:48
7001015TRISTA WOLVERTON26FBIRMINGHAM AL 01:07:5200:10:5701:06:5100:10:47
701298DEAN FRIERY38MWEST MONROE LA 01:07:5200:10:5701:07:2000:10:52
702802DON WALSTON56MBIRMINGHAM AL 01:07:5300:10:5701:06:5500:10:48
703302JEFFREY FUQUA48MBIRMINGHAM AL 01:08:0100:10:5901:08:0100:10:59
7041062KEITH RICHARDSON48MBIRMIBIRMINGHAMNGHAM A 01:08:0200:10:5901:07:2500:10:53
705749SUSAN SWAGLER51FMOUNTAIN BROOK AL 01:08:0500:10:5901:07:3300:10:54
706978KELLI JONES31FMCCALLA AL 01:08:0700:11:0001:07:2700:10:53
707619DUSTIN PENDEL28MHOMEWOOD AL 01:08:2000:11:0201:07:3700:10:55
708274JANE EMMERTH44FBIRMINGHAM AL 01:08:2200:11:0201:07:3400:10:54
709417PAUL JERNIGAN38MHOOVER AL 01:08:2800:11:0301:08:2800:11:03
71047ED ALDERSON63MBIRMINGHAM AL 01:08:3100:11:0401:08:0000:10:58
711229JILL CROWSON36FTRUSSVILLE AL 01:08:3400:11:0401:07:5100:10:57
71285MELLIE BASSETT30FBIRMINGHAM AL 01:08:3500:11:0401:07:3600:10:55
PlaceBibNAMEAgeSexCITY/STATETeamNameGunTimeGunPaceTagTimeTagPace
713472RICHARD LANGSTON58MPLEASANT GROVE AL 01:08:3800:11:0501:07:2400:10:53
714875JULIE BOSCHE37FBIRMINGHAM AL 01:08:4100:11:0501:08:1600:11:01
715461KAYLEY KRUEGER27FBIRMINGHAM AL 01:08:4200:11:0501:07:5900:10:58
716529WILLIAM MCCALLEY47MBIRMINGHAM AL 01:08:5100:11:0701:08:2000:11:02
7171031BROOKS COWING27MATLANTA GA 01:08:5800:11:0801:07:5900:10:58
718354BARBARA HARRINGTON44FBIRMINGHAM AL 01:08:5900:11:0801:08:0000:10:58
719160JAMIE CARNES33FMORRIS AL 01:08:5900:11:0801:08:1700:11:01
720641BRITTINY POWELL27FPLEASANT GROVE AL 01:09:0000:11:0801:08:3100:11:03
721820SARAH WEAVER37FBIRMINGHAM AL 01:09:0200:11:0801:07:5800:10:58
722424LISA JOHNSON34FBIRMINGHAM AL 01:09:1200:11:1001:08:1300:11:01
723526STUART MCATEE49MBIRMINGHAM AL 01:09:1500:11:1101:08:1700:11:01
724527ERIN MCATEE49FBIRMINGHAM AL 01:09:1500:11:1101:08:1700:11:01
7251159SANDRA GILLEY54FBIRMINGHAM AL 01:09:2900:11:1301:08:3600:11:04
726380KIMBERLY HILL40FLEEDS AL 01:09:3500:11:1401:08:5200:11:07
727312PHILIP GIBSON31MIRONDALE AL 01:09:3700:11:1401:08:4200:11:05
728184ALYSSA CLAY30FODENVILLE AL 01:09:4200:11:1501:09:1100:11:10
729544LISA SECOR36FBIRMINGHAM AL 01:09:4800:11:1601:09:1800:11:11
730107LARRY BOACKLE57MWARRIOR AL 01:09:5200:11:1701:08:5500:11:07
731108TOMIE ANN BOACKLE44FWARRIOR AL 01:09:5200:11:1701:08:5500:11:07
7321169MARGARET NICHOLAS56FBIRMINGHAM AL 01:09:5700:11:1701:09:0900:11:10
733852JOHNNA WILLIS32FHARTSELLE AL 01:09:5800:11:1801:09:3800:11:14
734939KIM TYLER51FBIRMINGHAM AL 01:09:5800:11:1801:09:3200:11:13
7351101LAWSON GATLIN23FBIRMINGHAM AL 01:10:0000:11:1801:09:1700:11:11
736971CANDACE HAAKE24FBIRMINGHAM AL 01:10:0000:11:1801:09:1700:11:11
737714TERI SMITH61FFULTONDALE AL 01:10:0000:11:1801:09:3800:11:14
738715CHRIS SMITH60MFULTONDALE AL 01:10:0000:11:1801:09:3800:11:14
739779EMILY TURNBOW41FBIRMINGHAM AL 01:10:0600:11:1901:09:3100:11:13
740579CHRISTIE MURCHISON27FBIRMINGHAM AL 01:10:1500:11:2001:09:2100:11:12
741509BRYNNE MACCANN36FSTERRETT AL 01:10:1500:11:2001:09:2100:11:12
7421141EMILY YORK33FALEXANDRIA VA 01:10:1700:11:2101:10:1700:11:21
7431138JONATHAN MCCONNELL33MHOMEWOOD AL 01:10:1700:11:2101:09:1100:11:10
PlaceBibNAMEAgeSexCITY/STATETeamNameGunTimeGunPaceTagTimeTagPace
744907ELIZABETH LOWDER26FBIRMINGHAM AL 01:10:2000:11:2101:09:4400:11:15
745850BROOKE WILLIAMSON28FLINEVILLE AL 01:10:2400:11:2201:09:3000:11:13
746599SHANNON O'GUIN29FHELENA AL 01:10:2500:11:2201:09:3600:11:14
747315DIANE GIDDENS56FLINEVILLE AL 01:10:2500:11:2201:09:3200:11:13
748480GAIL LEE63FHOOVER AL 01:10:2600:11:2201:09:3900:11:14
749413JAMES JACKSON68MVESTAVIA AL 01:10:2800:11:2201:09:2500:11:12
750418KYLIE JERNIGAN36FHOOVER AL 01:10:3400:11:2301:09:4500:11:15
7511119JAN EWERS38MBIRMINGHAM AL 01:10:3400:11:2301:10:2700:11:22
752316WENDY HASSINGER46FBIRMINGHAM AL 01:10:3900:11:2401:10:3900:11:24
753613JANICE PATTON36FBIRMINGHAM AL 01:10:4600:11:2501:10:4600:11:25
754396JAMIE HOPPER40FBIRMINGHAM AL 01:10:4600:11:2501:10:0100:11:18
7551041LOGAN HOLMES24MBIRMINGHAM AL 01:10:5500:11:2701:10:2100:11:21
756445JENNIFER KELLEY41FHELENA AL 01:11:0000:11:2701:09:5700:11:17
757491KATIE LITTS27FBIRMINGHAM AL 01:11:0900:11:2901:10:0900:11:19
758707TRICIA SIMPSON45FHOOVER AL 01:11:2100:11:3101:10:4600:11:25
759902KRISTEN JOHNSTON40FHOMEWOOD AL 01:11:2200:11:3101:10:4700:11:25
7601171ADRYENNE HOFFLER27FBIRMINGHAM AL 01:11:2200:11:3101:10:1800:11:21
761683KATELYN SAFFOLD24FATLANTA GA 01:11:3000:11:3201:10:3500:11:23
762838MORGAN WHITT12FBIRMINGHAM AL 01:11:3200:11:3301:10:4700:11:25
763541JOSH MCLAUGHLIN30MTRUSSVILLE AL 01:11:3400:11:3301:10:5900:11:27
764837TREY WHITT44MBIRMINGHAM AL 01:11:3500:11:3301:10:5000:11:26
7651089JIM COBLE41MHOOVER AL 01:11:3800:11:3401:10:5100:11:26
766789GRANT VENABLE26MHOOVER AL 01:11:5400:11:3601:11:1600:11:30
7671037CATHERINE GOUDREAU24FBIRMINGHAM AL 01:11:5400:11:3601:10:5500:11:27
768290EMANUEL FOSTER36MBESSEMER AL 01:12:0100:11:3701:11:3200:11:33
769230KRISTI CRUMP41FIRONDALE AL 01:12:1000:11:3901:11:0400:11:28
770447KAELA KELLY21FBIRMINGHAM AL 01:12:1500:11:4001:11:1400:11:30
771486ROBERT LENOIR64MPINSON AL 01:12:2000:11:4001:11:4100:11:34
772484KOREN LEE32FHOOVER AL 01:12:2100:11:4101:11:5700:11:37
7731094ASHLEIGH SILAS28FODENVILLE AL 01:12:2100:11:4101:11:4400:11:35
774889DINKS GASKIN65MBIRMINGHAM AL 01:12:2400:11:4101:11:2600:11:32
PlaceBibNAMEAgeSexCITY/STATETeamNameGunTimeGunPaceTagTimeTagPace
7751086SARAH CARTER34FBIRMINGHAM AL 01:12:2800:11:4201:11:3100:11:32
7761092NICHOLE BJORNSTAD SMITH27FBIRMINGHAM AL 01:12:2800:11:4201:11:4400:11:35
77778HUNTER BALLARD24M  01:12:2900:11:4201:12:2900:11:42
778922GRISSOM PIERCE13MBIRMINGHAM AL 01:12:3000:11:4201:11:2900:11:32
779921DEREK PIERCE48MBIRMINGHAM AL 01:12:3000:11:4201:11:2900:11:32
780605RANDALL PALMORE59MPINSON AL 01:12:4100:11:4401:12:0800:11:38
78159GEORGE ANDERSON51MBIRMINGHAM AL 01:12:4200:11:4401:12:0800:11:39
78258TAMPIA ANDERSON51FBIRMINGHAM AL 01:12:4300:11:4401:12:0900:11:39
783300NICOLE FROST25FBIRMINGHAM AL 01:12:5200:11:4601:12:5200:11:46
78454ANNA ALTZSMITH34FBIRMINGHAM AL 01:12:5900:11:4701:12:1900:11:40
7851126PARKER DOBBINS44MBIRMINGHAM AL 01:13:1100:11:4901:10:4300:11:25
786237JIM DARGAN58MVINCENT AL 01:13:1500:11:4901:12:0300:11:38
787182KELSEY CLARK25FHARVEST AL 01:13:1700:11:5001:12:3400:11:43
788694MITZI SHAFFIELD43FVESTAVIA AL 01:13:3300:11:5201:12:2600:11:41
789621LEXY PETRY37FBIRMINGHAM AL 01:13:3700:11:5301:13:0900:11:48
790469GLENDA LAMMERS55FCARROLLTON AL 01:13:4100:11:5301:12:4800:11:45
791551CAROL MILLS45FHOMEWOOD AL 01:13:4300:11:5401:12:4600:11:45
792801CASEY WALLACE25FBIRMINGHAM AL 01:13:5100:11:5501:13:2900:11:51
793438DAVID KAHN53MBIRMINGHAM ALCADENCE RUN COACHING BLUE01:14:0800:11:5801:14:0800:11:58
794554ABIGAIL MISSILDINE22FDECATUR AL 01:14:1200:11:5901:13:4500:11:54
7951022KRISTIN BARTON20FBIRMINGHAM AL 01:14:1300:11:5901:13:3900:11:53
796180SUE CLARK53FHARVEST AL 01:14:1400:11:5901:14:1400:11:59
797758JENNIFER THOMAS36FHELENA AL 01:14:1500:11:5901:13:2500:11:51
7981027HEATHER CHARLTON40FWARRIOR AL 01:14:1700:11:5901:13:1800:11:50
799839GINA WHITTEN43FONEONTA AL 01:14:2600:12:0101:14:0900:11:58
800558MADELEINE MITCHELL17FALBERTVILLE AL 01:14:3000:12:0101:13:3300:11:52
801557MARY CATHERINE MITCHELL20FALBERTVILLE AL 01:14:3000:12:0101:14:3000:12:01
802917SANDY MORRISON49FCALERA AL 01:14:3700:12:0301:14:0000:11:57
803260ANDREW DOGGRELL43MBIRMINGHAM AL 01:14:4100:12:0301:13:4800:11:55
804556JOYCE MITCHELL47FALBERTVILLE AL 01:15:0900:12:0801:14:1300:11:59
805543JON MCWHORTER40MLEEDS AL 01:15:1000:12:0801:14:4000:12:03
PlaceBibNAMEAgeSexCITY/STATETeamNameGunTimeGunPaceTagTimeTagPace
806232EMMAGENE CRUNK58FHOOVER AL 01:15:1000:12:0801:14:2300:12:00
807459ROBERT KRACKE44MVESTAVIA AL 01:15:1400:12:0801:14:1400:11:59
808866JEN ZAPPA40FBIRMINGHAM AL 01:15:1700:12:0901:14:3000:12:01
8091003JUSTIN SMITH33MBIRMINGHAM AL 01:15:3000:12:1101:14:5800:12:06
810504JODI LUNSFORD42FBESSEMER AL 01:15:3600:12:1201:15:0700:12:07
811308SHIRLEY GIBBS49FBIRMINGHAM AL 01:15:5000:12:1401:14:4500:12:04
812535RICKY MCDOUGAL30MHUNTSVILLE AL 01:15:5200:12:1501:14:4800:12:04
813149JIM BYRD60MBIRMINGHAM AL 01:15:5200:12:1501:14:4800:12:04
814815JEFF WAYMAN63MEAST TEMPLETON MA 01:15:5500:12:1501:14:4900:12:04
815817BRANDY WAYMAN32FAUBURN AL 01:15:5500:12:1501:14:5000:12:05
816369MEGHAN HENLEY35FSYLACAUGA AL 01:15:5500:12:1501:14:5100:12:05
817984ANNA MANASCO35FBIRMINGHAM AL 01:15:5800:12:1601:15:1300:12:08
818359KATIE HASKETT32FTUSCALOOSA AL 01:16:0000:12:1601:15:3600:12:12
819176STACY CHIOTAKIS49FCHELSEA AL 01:16:0100:12:1601:15:3500:12:12
820433SARAH JONES30FBIRMINGHAM AL 01:16:0400:12:1701:15:0700:12:07
821560AMANDA MOHAIMANY-APONTE28FBIRMINGHAM AL 01:16:0800:12:1701:15:5100:12:14
822790BETHANY VENABLE25FHOOVER AL 01:16:1300:12:1801:15:3500:12:12
823591DAILEY NETTLES21FBIRMINGHAM AL 01:16:1700:12:1901:15:3500:12:12
824759EMILY THOMAS26FGADSDEN AL 01:16:2800:12:2001:15:3500:12:12
825938LISA TULLOSS45FGARDENDALE AL 01:16:3500:12:2201:16:1100:12:18
826162MARK CARTER62MMOUNTAIN BROOK AL 01:16:4400:12:2301:16:4400:12:23
827132AUDREY BROWN40FBIRMINGHAM AL 01:16:5100:12:2401:16:0200:12:16
828980JOSEPH KULOVITZ31MBIRMINGHAM AL 01:16:5100:12:2401:16:1100:12:18
829630KRYSTAL PINO32FBIRMINGHAM AL 01:16:5100:12:2401:16:1100:12:18
830981MIKO KULOVITZ32FBIRMINGHAM AL 01:16:5200:12:2401:16:5200:12:24
83184JIM BASINGER59MBIRMINGHAM AL 01:17:0500:12:2601:16:3000:12:21
832795DEB WAKEFIELD26FHOOVER AL 01:17:1900:12:2901:16:5500:12:25
833406DAVE HUGHES51MBESSEMER AL 01:17:2300:12:2901:16:2000:12:19
834597BETH ODOM52FHOOVER AL 01:17:2900:12:3001:16:4100:12:23
835699TARA SHEA41FBIRMINGHAM AL 01:17:3000:12:3001:16:3600:12:22
836959ANNA COLVIN38FBIRMINGHAM AL 01:17:3000:12:3001:16:3700:12:22
PlaceBibNAMEAgeSexCITY/STATETeamNameGunTimeGunPaceTagTimeTagPace
837187DARCIE CLEMONS35FGARDENDALE AL 01:17:3200:12:3101:17:1300:12:28
83896MAX BERUEFFY63MBIRMINGHAM AL 01:17:4800:12:3301:16:4800:12:24
839139CHERYL BRYSON52FBIRMINGHAM AL 01:17:5600:12:3501:17:4700:12:33
840602KEITH O'NEAL36FBIRMINGHAM AL 01:18:0800:12:3701:17:0700:12:27
841601VANESSA O'NEAL37FBIRMINGHAM AL 01:18:0900:12:3701:18:0900:12:37
842507KIMBERLEY LYLES39FCALERA AL 01:18:1400:12:3801:17:5400:12:34
843185JENNIFER CLAYTON33FCHELSEA AL 01:18:1500:12:3801:17:2700:12:30
844550BILL MILLER40MCHELSEA AL 01:18:1500:12:3801:17:2700:12:30
8451099BETH STOKES39FHELENA AL 01:18:1900:12:3801:17:1700:12:28
846289GABRIEL FLORES39MPELL CITY AL 01:18:2100:12:3901:17:0300:12:26
847360JERRI HASLEM52FHOOVER AL 01:18:2200:12:3901:18:2200:12:39
8481091ELIZABETH TILEY37FVESTAVIA AL 01:18:2500:12:3901:17:3800:12:32
849408TARA HULGAN29FBIRMINGHAM AL 01:18:2500:12:3901:17:3900:12:32
850623TAN PHILLIPS48FBIRMINGHAM AL 01:18:2600:12:3901:17:5900:12:35
851739JAN STERLING62FBIRMINGHAM AL 01:18:3800:12:4101:17:5100:12:34
852791BEN VINES26MUNITED STATES AL 01:18:4500:12:4201:18:1500:12:38
853767BEVERLY THORN62FTUSCALOOSA AL 01:18:5300:12:4401:18:0200:12:36
854178MARTHA CIRULNICK30FBIRMINGHAM AL 01:18:5600:12:4401:18:5600:12:44
855885MOLLY DESAI46FBIRMINGHAM AL 01:19:0100:12:4501:18:1600:12:38
856658AMY RICHARDS28FKIMBERLY AL 01:19:2700:12:4901:19:2700:12:49
857171TERESA CHANDLER65FBIRMINGHAM AL 01:19:3200:12:5001:18:4300:12:42
858903BETSY KRUEGER53FBIRMINGHAM AL 01:19:4900:12:5301:19:0600:12:46
859988STEPHANIE NICHOLSON45FBIRMINGHAM AL 01:19:5300:12:5301:19:1100:12:47
860186BRETT CLEMONS44MGARDENDALE AL 01:19:5800:12:5401:19:4000:12:51
8611046CINDY KOSTELECKY48FBIRMINGHAM AK 01:20:3100:13:0001:19:5800:12:54
8621024JASON BOOI35MAUSTELL GA 01:20:3400:13:0001:20:0100:12:55
863952JOSEPH BRAKHAGE34MSTERRETT AL 01:20:3600:13:0001:19:5900:12:54
864713DANIEL SMART54MINDIAN SPRINGS AL 01:20:5000:13:0301:19:5700:12:54
8651074KIM YARBORO49FBIRMINGHAM AL 01:21:1900:13:0701:20:2800:12:59
866691CHARLIE SEAGLE55MVESTAVIA AL 01:21:3100:13:0901:20:2500:12:59
86773LES BAILEY65MBIRMINGHAM AL 01:21:3800:13:1001:20:5100:13:03
PlaceBibNAMEAgeSexCITY/STATETeamNameGunTimeGunPaceTagTimeTagPace
86856GERALD ANDERSON68MVESTAVIA HILLS AL 01:21:5000:13:1201:20:4400:13:02
869314CARRIE GIBSON31FIRONDALE AL 01:22:2000:13:1701:21:1600:13:07
870100WILL BISHOP22MHUNTSVILLE AL 01:22:5400:13:2301:22:5400:13:23
871672CHRISTY ROSS34FONEONTA ALVULCAN'S BUTTOCKS01:23:3000:13:2901:22:4200:13:21
872806HEATHER WARD33FHOOVER AL 01:23:4100:13:3001:23:0800:13:25
873570AMANDA MORRIS39FHELENA AL 01:23:4700:13:3101:23:1000:13:25
87492ANGELA BENNETT52FHOOVER AL 01:23:5700:13:3301:23:0500:13:24
8751100CONNIE GREEN41FHELENA AL 01:23:5800:13:3301:22:5600:13:23
876351AMANDA HARDEN37FPELHAM AL 01:24:0500:13:3401:23:4900:13:32
877109LEWIS BOLTZ34MHELENA AL 01:24:2300:13:3701:23:2300:13:27
878101CYNTHIA BISHOP20FHUNTSVILLE AL 01:24:3400:13:3901:24:3400:13:39
879872KATHRYN APPLETON48FBIRMINGHAM AL 01:24:3700:13:3901:23:5100:13:32
8801090HOLLY COBLE35FBIRMINGHAM AL 01:24:3800:13:3901:23:5100:13:32
881225DAWN CRAWFORD43FSPRINGVILLE AL 01:24:4000:13:4001:24:2900:13:38
882143JEROME BURKES65MBIRMINGHAM AL 01:24:4500:13:4101:24:1700:13:36
883843RANDY WILHITE62MDORA AL 01:24:4800:13:4101:24:4800:13:41
884536ROBERT MCELROY45MBIRMINGHAM AL 01:24:5300:13:4201:24:2400:13:37
885813MARY ANN WATKINS50FGADSDEN AL 01:24:5400:13:4201:24:2500:13:37
886106CHRISTIE BLANKENSHIP40FJASPER AL 01:25:1700:13:4601:24:2500:13:37
887538KATHY MCKEE32FSPRINGVILLE AL 01:25:2700:13:4701:25:0300:13:43
888317ANNA GILES29FBIRMINGHAM AL 01:25:4000:13:4901:25:1700:13:46
889890AMANDA GILES29FBIRMINGHAM AL 01:25:4300:13:5001:25:2000:13:46
890405DONNA HUGGINS64FBIRMINGHAM AL 01:25:5500:13:5201:25:3900:13:49
891501MELISSA LOUDON43FBIRMINGHAM AL 01:26:2500:13:5701:25:5700:13:52
892183KELSEY CLAUSSEN24FOCEAN SPRINGS MS 01:27:0100:14:0201:27:0100:14:02
893443HERB KEEFER53MHUEYTOWN AL 01:27:0100:14:0301:26:2800:13:57
894677KATIE ROWAN32FBIRMINGHAM AL 01:27:1000:14:0401:26:1900:13:56
895342SQUIRE GWIN71MBIRMINGHAM AL 01:27:2000:14:0601:26:1800:13:56
896411ALICIA IHNKEN45FEDGEWATER FL 01:27:5400:14:1101:26:4200:13:59
897702RYLAND SHERER8FONEONTA ALVULCAN'S BUTTOCKS01:28:0300:14:1301:27:1500:14:05
898167LAURA CHAATH28FBIRMINGHAM AL 01:28:2200:14:1601:27:2100:14:06
PlaceBibNAMEAgeSexCITY/STATETeamNameGunTimeGunPaceTagTimeTagPace
899482CANDICE LEE38FBIRMINGHAM AL 01:29:5600:14:3101:28:5300:14:21
9001127KATHY GIPSON44FHOOVER AL 01:30:1900:14:3501:29:5100:14:30
9011125KIMBERLY BIBB43FWARRIOR AL 01:30:2000:14:3501:29:5100:14:30
902329NOEL GRAHAM58FBIRMINGHAM AL 01:30:2200:14:3501:29:3100:14:27
903427SANDRA JONES62FBIRMINGHAM AL 01:30:2200:14:3501:29:3100:14:27
904634RICHARD POFF46MPELHAM AL 01:32:3000:14:5601:32:0300:14:51
905635CHRISTINA POFF45FPELHAM AL 01:32:3000:14:5601:32:0300:14:51
906194JENNIFER CLOE45FBIRMINGHAM AL 01:32:5800:15:0001:32:5800:15:00
907192RAFE CLOE80MVESTAVIA AL 01:32:5900:15:0001:31:5300:14:50
908193DAVID CLOE48MARLINGTONR VA 01:32:5900:15:0001:31:5400:14:50
909764RONDA THOMPSON51FBIRMINGHAM AL 01:33:5400:15:0901:33:0900:15:02
910655CANDACE REESE40FBIRMINGHAM AL 01:34:0100:15:1001:32:5500:15:00
911528KIM MCCALL42FLEEDS AL 01:34:5500:15:1901:33:4500:15:08
912379RHONDA HILL46FPINSONPINSON AL 01:34:5500:15:1901:33:4600:15:08
9131019CJ ALVERSON49MCANTON GA 01:38:0000:15:4901:37:0500:15:40
914123LESLIE BRENT51FBIRMINGHAM AL 01:38:0400:15:4901:37:1200:15:41
915211LATISHA COLVIN39FMOBILE AL 01:40:1200:16:1001:39:4200:16:05
916234TASHA CUNNINGHAM39FGARDENDALE AL 01:40:3200:16:1301:39:2900:16:03
9171061KATIE RICHARDSON49FBIRMIBIRMINGHAMNGHAM A 01:43:3700:16:4301:42:2700:16:32
9181004BONNIE SMITH50FCHELSEA AL 01:43:3700:16:4301:42:2800:16:32
919377SUSAN HILL53FBIRMINGHAM AL 01:43:5000:16:4501:42:4100:16:34
92099MARJORIE BISHOP52FHUNTSVILLE AL 01:44:0100:16:4701:43:0600:16:38
921609TODD PARRISH43MTRUSSVILLE AL 01:49:3500:17:4101:49:0400:17:36
922861XING WU56MHOOVER AL 01:49:3800:17:4101:48:2300:17:29

** Results are for the private use of participants and are the Intellectual Property of Set Up Events. Unauthorized use of these results is prohibited.